CW9600 Weather Reports


Display with metric or nautical units.
time (UTC)temp
F
wind
direction
speed
MPH
gust
MPH
rain 1hr
in
rain 24hr
in
rain mn
in
humidity
%
barometer
mb
20260510151400 52 69 7.0 12.0 0.00 0.03 0.00 53
20260510151300 52 68 7.0 12.0 0.00 0.03 0.00 54
20260510151200 52 70 7.0 12.0 0.00 0.03 0.00 52
20260510151100 52 68 7.0 12.0 0.00 0.03 0.00 52
20260510151000 52 64 7.0 12.0 0.00 0.03 0.00 52
20260510150900 52 62 7.0 12.0 0.00 0.03 0.00 52
20260510150821 52 61 7.0 12.0 0.00 0.03 0.00 52
20260510150721 52 60 7.0 12.0 0.00 0.03 0.00 52
20260510150621 52 59 7.0 12.0 0.00 0.03 0.00 52
20260510150500 52 58 6.0 12.0 0.00 0.03 0.00 53
20260510150400 53 58 6.0 12.0 0.00 0.03 0.00 52
20260510150300 53 60 6.0 12.0 0.00 0.03 0.00 53
20260510150200 53 62 6.0 12.0 0.00 0.03 0.00 53
20260510150000 53 72 6.0 13.0 0.00 0.03 0.00 52
20260510145900 53 77 7.0 13.0 0.00 0.03 0.00 52
20260510145800 53 79 7.0 13.0 0.00 0.03 0.00 52
20260510145700 53 82 7.0 13.0 0.00 0.03 0.00 52
20260510145600 53 85 7.0 13.0 0.00 0.03 0.00 52
20260510145500 53 88 7.0 13.0 0.00 0.03 0.00 51
20260510145421 53 90 8.0 13.0 0.00 0.03 0.00 51
20260510145300 53 90 8.0 13.0 0.00 0.03 0.00 52
20260510145200 53 92 8.0 13.0 0.00 0.03 0.00 51
20260510145100 53 94 7.0 13.0 0.00 0.03 0.00 50
20260510145000 53 92 8.0 14.0 0.00 0.03 0.00 50
20260510144900 53 89 7.0 14.0 0.00 0.03 0.00 50
20260510144800 54 88 8.0 14.0 0.00 0.03 0.00 50
20260510144721 54 86 8.0 14.0 0.00 0.03 0.00 50
20260510144600 54 84 8.0 14.0 0.00 0.03 0.00 50
20260510144500 54 82 8.0 14.0 0.00 0.03 0.00 50
20260510144400 54 84 8.0 16.0 0.00 0.03 0.00 51
20260510144300 54 79 8.0 16.0 0.00 0.03 0.00 50
20260510144200 54 73 9.0 16.0 0.00 0.03 0.00 50
20260510144100 54 68 8.0 16.0 0.00 0.03 0.00 50
20260510144000 54 64 8.0 16.0 0.00 0.03 0.00 51
20260510143900 54 55 8.0 16.0 0.00 0.03 0.00 52
20260510143801 54 49 8.0 16.0 0.00 0.03 0.00 52
20260510143700 54 42 8.0 16.0 0.00 0.03 0.00 54
20260510143600 53 36 8.0 16.0 0.00 0.03 0.00 53
20260510143500 53 31 7.0 16.0 0.00 0.03 0.00 54
20260510143400 53 24 7.0 12.0 0.00 0.03 0.00 53
20260510143300 53 30 7.0 14.0 0.00 0.03 0.00 53
20260510143200 53 36 8.0 14.0 0.00 0.03 0.00 53
20260510143100 53 39 8.0 14.0 0.00 0.03 0.00 53
20260510143000 53 39 8.0 14.0 0.00 0.03 0.00 53
20260510142900 53 42 8.0 14.0 0.00 0.03 0.00 53
20260510142800 53 45 8.0 14.0 0.00 0.03 0.00 52
20260510142700 53 45 7.0 14.0 0.00 0.03 0.00 53
20260510142600 53 47 7.0 14.0 0.00 0.03 0.00 53
20260510142521 53 45 7.0 14.0 0.00 0.03 0.00 53
20260510142421 53 45 7.0 14.0 0.00 0.03 0.00 52
20260510142300 53 40 7.0 12.0 0.00 0.03 0.00 53
20260510142200 53 37 7.0 12.0 0.00 0.03 0.00 53
20260510142100 53 35 7.0 12.0 0.00 0.03 0.00 52
20260510142000 53 37 8.0 12.0 0.00 0.03 0.00 52
20260510141900 53 40 8.0 13.0 0.00 0.03 0.00 52
20260510141821 53 42 8.0 14.0 0.00 0.03 0.00 52
20260510141721 53 43 8.0 14.0 0.00 0.03 0.00 51
20260510141600 54 45 8.0 14.0 0.00 0.03 0.00 52
20260510141500 54 49 8.0 14.0 0.00 0.03 0.00 52
20260510141421 54 51 8.0 14.0 0.00 0.03 0.00 52
20260510141300 54 58 7.0 14.0 0.00 0.03 0.00 52
20260510141200 54 62 7.0 14.0 0.00 0.03 0.00 53
20260510141100 54 64 7.0 14.0 0.00 0.03 0.00 52
20260510141000 54 65 7.0 14.0 0.00 0.03 0.00 52
20260510140900 53 69 7.0 14.0 0.00 0.03 0.00 52
20260510140800 53 72 7.0 12.0 0.00 0.03 0.00 53
20260510140721 53 74 6.0 12.0 0.00 0.03 0.00 53
20260510140601 53 75 7.0 12.0 0.00 0.03 0.00 52
20260510140500 53 74 7.0 12.0 0.00 0.03 0.00 54
20260510140400 53 66 7.0 11.0 0.00 0.03 0.00 54
20260510140300 53 60 7.0 11.0 0.00 0.03 0.00 53
20260510140200 53 53 7.0 11.0 0.00 0.03 0.00 53
20260510140100 53 48 7.0 14.0 0.00 0.03 0.00 52
20260510140000 52 46 8.0 14.0 0.00 0.03 0.00 53
20260510135900 52 47 8.0 15.0 0.00 0.03 0.00 53
20260510135800 52 43 8.0 15.0 0.00 0.03 0.00 53
20260510135700 52 42 8.0 15.0 0.00 0.03 0.00 53
20260510135600 52 39 8.0 15.0 0.00 0.03 0.00 55
20260510135500 52 39 8.0 15.0 0.00 0.03 0.00 54
20260510135400 53 41 9.0 18.0 0.00 0.03 0.00 53
20260510135300 53 43 8.0 18.0 0.00 0.03 0.00 52
20260510135200 54 49 8.0 18.0 0.00 0.03 0.00 53
20260510135100 54 58 8.0 18.0 0.00 0.03 0.00 51
20260510135000 54 61 7.0 18.0 0.00 0.03 0.00 54
20260510134921 54 60 7.0 18.0 0.00 0.03 0.00 54
20260510134800 54 60 7.0 18.0 0.00 0.03 0.00 54
20260510134700 54 62 7.0 18.0 0.00 0.03 0.00 54
20260510134600 54 61 7.0 18.0 0.00 0.03 0.00 53
20260510134500 54 58 7.0 18.0 0.00 0.03 0.00 52
20260510134400 53 59 7.0 13.0 0.00 0.03 0.00 53
20260510134300 53 58 7.0 13.0 0.00 0.03 0.00 53
20260510134200 53 56 7.0 13.0 0.00 0.03 0.00 55
20260510134100 53 53 7.0 13.0 0.00 0.03 0.00 54
20260510134000 52 50 7.0 13.0 0.00 0.03 0.00 54
20260510133900 52 48 7.0 13.0 0.00 0.03 0.00 54
20260510133800 52 47 8.0 13.0 0.00 0.03 0.00 55
20260510133700 52 47 8.0 13.0 0.00 0.03 0.00 56
20260510133600 52 50 8.0 14.0 0.00 0.03 0.00 56
20260510133500 52 52 8.0 14.0 0.00 0.03 0.00 56
20260510133400 52 54 8.0 14.0 0.00 0.03 0.00 55
20260510133300 52 54 8.0 14.0 0.00 0.03 0.00 55
20260510133221 52 54 9.0 14.0 0.00 0.03 0.00 55
20260510133100 52 54 9.0 14.0 0.00 0.03 0.00 56
20260510133000 52 56 9.0 14.0 0.00 0.03 0.00 56
20260510132901 52 59 9.0 14.0 0.00 0.03 0.00 55
20260510132800 52 60 9.0 14.0 0.00 0.03 0.00 55
20260510132701 52 59 9.0 14.0 0.00 0.03 0.00 55
20260510132600 52 58 9.0 14.0 0.00 0.03 0.00 55
20260510132521 52 57 9.0 14.0 0.00 0.03 0.00 55
20260510132400 53 54 9.0 14.0 0.00 0.03 0.00 55
20260510132300 53 53 9.0 14.0 0.00 0.03 0.00 55
20260510132200 53 50 9.0 18.0 0.00 0.03 0.00 54
20260510132100 53 49 9.0 18.0 0.00 0.03 0.00 54
20260510132000 53 49 9.0 18.0 0.00 0.03 0.00 54
20260510131900 53 48 9.0 18.0 0.00 0.03 0.00 53
20260510131801 53 46 9.0 18.0 0.00 0.03 0.00 53
20260510131700 53 47 9.0 18.0 0.00 0.03 0.00 52
20260510131600 54 46 9.0 18.0 0.00 0.03 0.00 52
20260510131500 54 47 8.0 18.0 0.00 0.03 0.00 52
20260510131400 54 48 8.0 18.0 0.00 0.03 0.00 52
20260510131300 54 50 8.0 18.0 0.00 0.03 0.00 54
20260510131200 54 53 8.0 18.0 0.00 0.03 0.00 53
20260510131100 54 54 8.0 15.0 0.00 0.03 0.00 53
20260510131000 53 51 8.0 15.0 0.00 0.03 0.00 53
20260510130900 53 51 8.0 15.0 0.00 0.03 0.00 54
20260510130821 53 53 8.0 15.0 0.00 0.03 0.00 54
20260510130701 53 54 8.0 15.0 0.00 0.03 0.00 53
20260510130600 53 54 8.0 15.0 0.00 0.03 0.00 54
20260510130500 53 53 9.0 15.0 0.00 0.03 0.00 54
20260510130400 52 51 8.0 15.0 0.00 0.03 0.00 54
20260510130300 52 47 8.0 15.0 0.00 0.03 0.00 53
20260510130200 52 46 8.0 15.0 0.00 0.03 0.00 52
20260510130100 52 44 8.0 14.0 0.00 0.03 0.00 52
20260510130000 52 46 9.0 14.0 0.00 0.03 0.00 52
20260510125900 52 46 9.0 14.0 0.00 0.03 0.00 53
20260510125800 52 45 9.0 15.0 0.00 0.03 0.00 55
20260510125700 52 45 9.0 15.0 0.00 0.03 0.00 56
20260510125600 52 45 9.0 15.0 0.00 0.03 0.00 55
20260510125500 52 47 9.0 16.0 0.00 0.03 0.00 55
20260510125421 52 48 10.0 16.0 0.00 0.03 0.00 55
20260510125300 52 49 10.0 16.0 0.00 0.03 0.00 54
20260510125200 52 49 10.0 16.0 0.00 0.03 0.00 53
20260510125100 52 48 10.0 16.0 0.00 0.03 0.00 53
20260510125000 52 48 10.0 16.0 0.00 0.03 0.00 53
20260510124900 53 48 9.0 16.0 0.00 0.03 0.00 54
20260510124821 53 48 9.0 16.0 0.00 0.03 0.00 54
20260510124700 53 48 9.0 16.0 0.00 0.03 0.00 53
20260510124600 53 47 9.0 16.0 0.00 0.03 0.00 54
20260510124500 53 49 8.0 16.0 0.00 0.03 0.00 54
20260510124400 53 53 8.0 15.0 0.00 0.03 0.00 56
20260510124300 53 54 8.0 13.0 0.00 0.03 0.00 56
20260510124200 52 54 8.0 13.0 0.00 0.03 0.00 54
20260510124121 52 53 9.0 16.0 0.00 0.03 0.00 54
20260510124021 52 52 9.0 16.0 0.00 0.03 0.00 54
20260510123900 52 50 9.0 19.0 0.00 0.03 0.00 53
20260510123800 52 50 10.0 19.0 0.00 0.03 0.00 53
20260510123700 52 48 10.0 19.0 0.00 0.03 0.00 53
20260510123621 52 47 10.0 19.0 0.00 0.03 0.00 53
20260510123500 53 41 10.0 19.0 0.00 0.03 0.00 52
20260510123400 53 39 10.0 19.0 0.00 0.03 0.00 51
20260510123300 53 41 10.0 19.0 0.00 0.03 0.00 51
20260510123200 53 43 10.0 19.0 0.00 0.03 0.00 51
20260510123121 54 45 9.0 19.0 0.00 0.03 0.00 51
20260510123000 54 45 8.0 19.0 0.00 0.03 0.00 54
20260510122900 53 46 8.0 14.0 0.00 0.03 0.00 54
20260510122800 53 45 8.0 14.0 0.00 0.03 0.00 53
20260510122701 53 46 8.0 14.0 0.00 0.03 0.00 52
20260510122621 53 49 8.0 14.0 0.00 0.03 0.00 52
20260510122500 53 54 8.0 14.0 0.00 0.03 0.00 50
20260510122400 53 54 8.0 15.0 0.00 0.03 0.00 51
20260510122300 53 51 9.0 19.0 0.00 0.03 0.00 53
20260510122200 53 47 9.0 19.0 0.00 0.03 0.00 52
20260510122100 53 48 9.0 19.0 0.00 0.03 0.00 53
20260510122000 52 49 10.0 19.0 0.00 0.03 0.00 52
20260510121900 53 49 10.0 19.0 0.00 0.03 0.00 53
20260510121821 53 49 10.0 19.0 0.00 0.03 0.00 53
20260510121700 53 46 10.0 19.0 0.00 0.03 0.00 53
20260510121600 53 45 10.0 19.0 0.00 0.03 0.00 54
20260510121500 53 44 10.0 19.0 0.00 0.03 0.00 54
20260510121400 53 45 10.0 19.0 0.00 0.03 0.00 53
20260510121321 53 47 9.0 16.0 0.00 0.03 0.00 53
20260510121200 53 51 9.0 16.0 0.00 0.03 0.00 53
20260510121100 53 48 9.0 16.0 0.00 0.03 0.00 55
20260510121000 53 47 9.0 14.0 0.00 0.03 0.00 54
20260510120900 53 47 9.0 14.0 0.00 0.03 0.00 54
20260510120821 53 47 9.0 14.0 0.00 0.03 0.00 54
20260510120721 53 50 9.0 14.0 0.00 0.03 0.00 53
20260510120600 53 50 9.0 14.0 0.00 0.03 0.00 53
20260510120521 53 50 9.0 14.0 0.00 0.03 0.00 53
20260510120400 53 49 9.0 14.0 0.00 0.03 0.00 53
20260510120321 53 46 8.0 14.0 0.00 0.03 0.00 53
20260510120200 53 46 8.0 14.0 0.00 0.03 0.00 54
20260510120100 53 47 8.0 14.0 0.00 0.03 0.00 55
20260510120021 53 48 8.0 14.0 0.00 0.03 0.00 55
20260510115921 53 49 8.0 14.0 0.00 0.03 0.00 54
20260510115800 53 48 8.0 13.0 0.00 0.03 0.00 58
20260510115700 53 46 8.0 13.0 0.00 0.03 0.00 58
20260510115600 53 47 8.0 13.0 0.00 0.03 0.00 58
20260510115500 53 47 8.0 13.0 0.00 0.03 0.00 57
20260510115400 53 49 8.0 14.0 0.00 0.03 0.00 57
20260510115300 53 47 9.0 15.0 0.00 0.03 0.00 57
20260510115200 53 46 9.0 15.0 0.00 0.03 0.00 56
20260510115100 53 45 9.0 15.0 0.00 0.03 0.00 55
20260510115000 53 44 9.0 15.0 0.00 0.03 0.00 55
20260510114900 53 46 9.0 15.0 0.00 0.03 0.00 55
20260510114800 53 45 9.0 15.0 0.00 0.03 0.00 56
20260510114721 53 44 9.0 15.0 0.00 0.03 0.00 56
20260510114600 53 43 10.0 15.0 0.00 0.03 0.00 55
20260510114500 53 44 10.0 15.0 0.00 0.03 0.00 53
20260510114400 53 42 10.0 15.0 0.00 0.03 0.00 52
20260510114300 53 43 10.0 15.0 0.00 0.03 0.00 50
20260510114221 53 42 10.0 18.0 0.00 0.03 0.00 50
20260510114100 53 41 10.0 18.0 0.00 0.03 0.00 55
20260510114000 53 40 10.0 18.0 0.00 0.03 0.00 53
20260510113900 53 42 10.0 18.0 0.00 0.03 0.00 53
20260510113800 53 45 10.0 18.0 0.00 0.03 0.00 55
20260510113700 53 46 10.0 18.0 0.00 0.03 0.00 55
20260510113600 53 47 10.0 18.0 0.00 0.03 0.00 58
20260510113521 53 46 9.0 18.0 0.00 0.03 0.00 58
20260510113421 52 46 9.0 18.0 0.00 0.03 0.00 58
20260510113300 52 47 9.0 18.0 0.00 0.03 0.00 57
20260510113200 52 49 9.0 15.0 0.00 0.03 0.00 56
20260510113100 52 49 9.0 15.0 0.00 0.03 0.00 55
20260510113001 52 48 9.0 15.0 0.00 0.03 0.00 56
20260510112900 52 44 9.0 15.0 0.00 0.03 0.00 55
20260510112800 52 43 9.0 15.0 0.00 0.03 0.00 54
20260510112721 52 43 9.0 15.0 0.00 0.03 0.00 54
20260510112621 52 43 9.0 14.0 0.00 0.03 0.00 53
20260510112500 52 42 9.0 14.0 0.00 0.03 0.00 54
20260510112400 52 42 9.0 14.0 0.00 0.03 0.00 54
20260510112300 52 39 9.0 14.0 0.00 0.03 0.00 55
20260510112221 52 39 9.0 14.0 0.00 0.03 0.00 55
20260510112100 52 39 9.0 15.0 0.00 0.03 0.00 55
20260510112000 52 40 9.0 15.0 0.00 0.03 0.00 56
20260510111900 52 41 9.0 15.0 0.00 0.03 0.00 57
20260510111801 52 41 9.0 15.0 0.00 0.03 0.00 56
20260510111700 51 39 8.0 15.0 0.00 0.03 0.00 55
20260510111600 51 41 9.0 15.0 0.00 0.03 0.00 54
20260510111521 51 42 9.0 15.0 0.00 0.03 0.00 54
20260510111400 51 41 9.0 15.0 0.00 0.03 0.00 57
20260510111300 51 40 9.0 15.0 0.00 0.03 0.00 59
20260510111200 50 40 8.0 15.0 0.00 0.03 0.00 62
20260510111100 50 42 8.0 13.0 0.00 0.03 0.00 61
20260510111000 50 41 7.0 13.0 0.00 0.03 0.00 62
20260510110900 50 41 7.0 13.0 0.00 0.03 0.00 62
20260510110800 50 39 8.0 13.0 0.00 0.03 0.00 61
20260510110700 50 40 8.0 13.0 0.00 0.03 0.00 61
20260510110600 50 38 8.0 14.0 0.00 0.03 0.00 61
20260510110500 50 36 8.0 14.0 0.00 0.03 0.00 62
20260510110421 50 38 8.0 14.0 0.00 0.03 0.00 62
20260510110300 50 42 8.0 14.0 0.00 0.03 0.00 62
20260510110200 50 41 8.0 14.0 0.00 0.03 0.00 62
20260510110100 50 39 8.0 14.0 0.00 0.03 0.00 62
20260510110000 51 40 8.0 14.0 0.00 0.03 0.00 62
20260510105900 51 41 8.0 14.0 0.00 0.03 0.00 62
20260510105800 51 41 9.0 14.0 0.00 0.03 0.00 62
20260510105700 51 38 9.0 18.0 0.00 0.03 0.00 63
20260510105600 51 37 9.0 18.0 0.00 0.03 0.00 63
20260510105500 51 38 9.0 18.0 0.00 0.03 0.00 63
20260510105400 50 37 10.0 18.0 0.00 0.03 0.00 63
20260510105300 50 34 10.0 18.0 0.00 0.03 0.00 62
20260510105200 50 33 10.0 18.0 0.00 0.03 0.00 61
20260510105100 50 32 10.0 18.0 0.00 0.03 0.00 61
20260510105000 51 31 10.0 18.0 0.00 0.03 0.00 61
20260510104900 51 31 10.0 18.0 0.00 0.03 0.00 60
20260510104800 51 32 10.0 18.0 0.00 0.03 0.00 60
20260510104700 51 33 9.0 15.0 0.00 0.03 0.00 60
20260510104600 51 33 9.0 15.0 0.00 0.03 0.00 60
20260510104521 52 31 9.0 15.0 0.00 0.03 0.00 60
20260510104401 52 31 9.0 18.0 0.00 0.03 0.00 61
20260510104321 52 32 9.0 18.0 0.00 0.03 0.00 61
20260510104200 52 35 9.0 18.0 0.00 0.03 0.00 60
20260510104100 52 37 8.0 18.0 0.00 0.03 0.00 60
20260510104000 52 38 8.0 18.0 0.00 0.03 0.00 62
20260510103900 51 36 8.0 18.0 0.00 0.03 0.00 61
20260510103800 51 36 8.0 18.0 0.00 0.03 0.00 59
20260510103700 51 37 8.0 18.0 0.00 0.03 0.00 59
20260510103600 51 37 9.0 18.0 0.00 0.03 0.00 60
20260510103500 51 37 8.0 18.0 0.00 0.03 0.00 61
20260510103400 50 39 8.0 16.0 0.00 0.03 0.00 61
20260510103300 50 39 9.0 16.0 0.00 0.03 0.00 60
20260510103221 50 38 9.0 16.0 0.00 0.03 0.00 60
20260510103100 50 37 9.0 16.0 0.00 0.03 0.00 59
20260510103000 50 37 9.0 16.0 0.00 0.03 0.00 59
20260510102900 50 37 9.0 16.0 0.00 0.03 0.00 59
20260510102800 50 36 10.0 16.0 0.00 0.03 0.00 59
20260510102700 50 36 10.0 16.0 0.00 0.03 0.00 59
20260510102600 51 36 9.0 15.0 0.00 0.03 0.00 59
20260510102500 51 38 9.0 15.0 0.00 0.03 0.00 58
20260510102400 51 42 10.0 15.0 0.00 0.03 0.00 57
20260510102321 51 45 10.0 18.0 0.00 0.03 0.00 57
20260510102200 51 47 10.0 18.0 0.00 0.03 0.00 57
20260510102100 51 48 10.0 18.0 0.00 0.03 0.00 57
20260510102000 52 46 10.0 18.0 0.00 0.03 0.00 57
20260510101900 52 49 10.0 18.0 0.00 0.03 0.00 57
20260510101800 52 53 9.0 18.0 0.00 0.03 0.00 58
20260510101721 52 55 9.0 18.0 0.00 0.03 0.00 58
20260510101600 52 59 9.0 18.0 0.00 0.03 0.00 55
20260510101521 52 59 9.0 18.0 0.00 0.03 0.00 55
20260510101400 52 60 9.0 18.0 0.00 0.03 0.00 57
20260510101300 52 58 9.0 16.0 0.00 0.03 0.00 56
20260510101221 53 58 9.0 16.0 0.00 0.03 0.00 56
20260510101100 53 62 9.0 16.0 0.00 0.03 0.00 56
20260510101021 53 67 9.0 16.0 0.00 0.03 0.00 56
20260510100900 53 69 9.0 16.0 0.00 0.03 0.00 56
20260510100800 53 70 9.0 16.0 0.00 0.03 0.00 55
20260510100701 53 70 10.0 16.0 0.00 0.03 0.00 57
20260510100600 53 70 9.0 15.0 0.00 0.03 0.00 56
20260510100521 53 69 10.0 15.0 0.00 0.03 0.00 56
20260510100401 53 63 10.0 15.0 0.00 0.03 0.00 54
20260510100300 53 62 9.0 15.0 0.00 0.03 0.00 55
20260510100221 53 63 9.0 15.0 0.00 0.03 0.00 55
20260510100100 53 61 9.0 15.0 0.00 0.03 0.00 56
20260510100000 53 57 9.0 15.0 0.00 0.03 0.00 56
20260510095900 53 55 9.0 15.0 0.00 0.03 0.00 56
20260510095800 53 52 9.0 15.0 0.00 0.03 0.00 58
20260510095721 53 51 9.0 16.0 0.00 0.03 0.00 58
20260510095600 53 49 9.0 16.0 0.00 0.03 0.00 58
20260510095500 52 50 9.0 19.0 0.00 0.03 0.00 59
20260510095400 52 51 9.0 19.0 0.00 0.03 0.00 60
20260510095305 52 51 10.0 19.0 0.00 0.03 0.00 60
20260510095201 52 50 10.0 19.0 0.00 0.03 0.00 61
20260510095100 52 49 10.0 19.0 0.00 0.03 0.00 61
20260510095000 52 51 10.0 19.0 0.00 0.03 0.00 59
20260510094921 51 52 10.0 19.0 0.00 0.03 0.00 59
20260510094800 51 50 10.0 19.0 0.00 0.03 0.00 61
20260510094700 51 49 10.0 19.0 0.00 0.03 0.00 60
20260510094621 51 49 10.0 19.0 0.00 0.03 0.00 60
20260510094500 51 53 10.0 16.0 0.00 0.03 0.00 60
20260510094400 51 53 10.0 16.0 0.00 0.03 0.00 61
20260510094301 51 52 10.0 16.0 0.00 0.03 0.00 62
20260510094200 51 55 9.0 16.0 0.00 0.03 0.00 62
20260510094100 51 57 10.0 16.0 0.00 0.03 0.00 62
20260510094000 51 57 9.0 16.0 0.00 0.03 0.00 63
20260510093900 51 55 9.0 16.0 0.00 0.03 0.00 63
20260510093800 51 55 9.0 20.0 0.00 0.03 0.00 61
20260510093721 50 54 9.0 20.0 0.00 0.03 0.00 61
20260510093600 50 53 10.0 20.0 0.00 0.03 0.00 61
20260510093500 50 49 9.0 20.0 0.00 0.03 0.00 62
20260510093421 50 48 10.0 20.0 0.00 0.03 0.00 62
20260510093300 50 50 10.0 20.0 0.00 0.03 0.00 62
20260510093200 50 47 9.0 20.0 0.00 0.03 0.00 63
20260510093100 50 45 9.0 20.0 0.00 0.03 0.00 62
20260510093021 50 44 9.0 20.0 0.00 0.03 0.00 62
20260510092900 50 45 9.0 20.0 0.00 0.03 0.00 62
20260510092800 50 46 9.0 16.0 0.00 0.03 0.00 62
20260510092700 50 46 8.0 16.0 0.00 0.03 0.00 62
20260510092600 50 46 8.0 16.0 0.00 0.03 0.00 62
20260510092500 50 46 9.0 16.0 0.00 0.03 0.00 62
20260510092400 50 45 9.0 16.0 0.00 0.03 0.00 63
20260510092321 50 43 9.0 16.0 0.00 0.03 0.00 63
20260510092200 50 42 9.0 16.0 0.00 0.03 0.00 63
20260510092100 50 42 9.0 16.0 0.00 0.03 0.00 62
20260510092000 50 42 10.0 16.0 0.00 0.03 0.00 62
20260510091900 50 42 10.0 16.0 0.00 0.03 0.00 61
20260510091800 50 43 10.0 16.0 0.00 0.03 0.00 61
20260510091700 50 44 10.0 16.0 0.00 0.03 0.00 62
20260510091600 50 44 10.0 16.0 0.00 0.03 0.00 62
20260510091521 50 44 10.0 16.0 0.00 0.03 0.00 62
20260510091400 50 43 10.0 16.0 0.00 0.03 0.00 63
20260510091300 50 43 10.0 16.0 0.00 0.03 0.00 64
20260510091200 50 41 11.0 16.0 0.00 0.03 0.00 66
20260510091100 50 39 11.0 19.0 0.00 0.03 0.00 65
20260510091000 50 36 11.0 19.0 0.00 0.03 0.00 66
20260510090900 50 33 11.0 19.0 0.00 0.03 0.00 67
20260510090800 49 30 11.0 19.0 0.00 0.03 0.00 68
20260510090701 49 27 11.0 19.0 0.00 0.03 0.00 68
20260510090600 49 26 11.0 19.0 0.00 0.03 0.00 69
20260510090500 49 26 11.0 19.0 0.00 0.03 0.00 70
20260510090400 48 25 12.0 19.0 0.00 0.03 0.00 69
20260510090300 48 26 11.0 19.0 0.00 0.03 0.00 69
20260510090200 48 27 11.0 19.0 0.00 0.03 0.00 69
20260510090100 48 27 11.0 19.0 0.00 0.03 0.00 70
20260510090000 48 28 11.0 19.0 0.00 0.03 0.00 70
20260510085900 48 30 11.0 19.0 0.00 0.03 0.00 70
20260510085800 48 31 11.0 19.0 0.00 0.03 0.00 70
20260510085700 48 33 11.0 19.0 0.00 0.03 0.00 69
20260510085600 48 34 10.0 19.0 0.00 0.03 0.00 70
20260510085500 48 34 10.0 19.0 0.00 0.03 0.00 70
20260510085421 48 34 10.0 19.0 0.00 0.03 0.00 70
20260510085300 49 35 9.0 16.0 0.00 0.03 0.00 70
20260510085200 49 36 9.0 16.0 0.00 0.03 0.00 70
20260510085100 49 38 9.0 16.0 0.00 0.03 0.00 70
20260510085000 48 40 9.0 16.0 0.00 0.03 0.00 70
20260510084900 48 40 9.0 16.0 0.00 0.03 0.00 71
20260510084800 48 41 9.0 16.0 0.00 0.03 0.00 71
20260510084700 48 41 9.0 16.0 0.00 0.03 0.00 71
20260510084600 48 40 9.0 16.0 0.00 0.03 0.00 72
20260510084500 48 40 9.0 16.0 0.00 0.03 0.00 71
20260510084400 48 39 9.0 16.0 0.00 0.03 0.00 71
20260510084300 48 37 10.0 16.0 0.00 0.03 0.00 71
20260510084201 48 37 9.0 16.0 0.00 0.03 0.00 72
20260510084100 48 37 10.0 16.0 0.00 0.03 0.00 72
20260510084000 48 35 10.0 16.0 0.00 0.03 0.00 72
20260510083900 48 34 10.0 18.0 0.00 0.03 0.00 72
20260510083800 48 33 10.0 18.0 0.00 0.03 0.00 71
20260510083701 48 31 11.0 18.0 0.00 0.03 0.00 71
20260510083601 48 30 11.0 18.0 0.00 0.03 0.00 70
20260510083500 48 30 11.0 18.0 0.00 0.03 0.00 70
20260510083400 48 30 11.0 18.0 0.00 0.03 0.00 70
20260510083301 49 31 11.0 18.0 0.00 0.03 0.00 69
20260510083200 49 30 11.0 18.0 0.00 0.03 0.00 69
20260510083100 49 30 11.0 18.0 0.00 0.03 0.00 69
20260510083000 49 30 11.0 18.0 0.00 0.03 0.00 68
20260510082900 50 31 11.0 18.0 0.00 0.03 0.00 68
20260510082800 50 32 10.0 18.0 0.00 0.03 0.00 68
20260510082721 50 34 10.0 18.0 0.00 0.03 0.00 68
20260510082600 50 36 9.0 18.0 0.00 0.03 0.00 67
20260510082521 51 36 9.0 18.0 0.00 0.03 0.00 67
20260510082400 51 38 9.0 18.0 0.00 0.03 0.00 66
20260510082321 51 37 9.0 18.0 0.00 0.03 0.00 66
20260510082200 51 38 9.0 18.0 0.00 0.03 0.00 66
20260510082100 52 40 8.0 15.0 0.00 0.03 0.00 67
20260510082000 52 40 8.0 15.0 0.00 0.03 0.00 68
20260510081921 51 40 8.0 15.0 0.00 0.03 0.00 68
20260510081800 51 39 9.0 15.0 0.00 0.03 0.00 69
20260510081700 51 39 9.0 18.0 0.00 0.03 0.00 69
20260510081600 51 38 10.0 19.0 0.00 0.03 0.00 69
20260510081500 51 39 10.0 19.0 0.00 0.03 0.00 69
20260510081400 51 38 10.0 19.0 0.00 0.03 0.00 70
20260510081300 51 40 10.0 19.0 0.00 0.03 0.00 70
20260510081221 50 41 10.0 19.0 0.00 0.03 0.00 70
20260510081100 50 42 10.0 19.0 0.00 0.03 0.00 70
20260510081000 50 45 10.0 19.0 0.00 0.03 0.00 69
20260510080900 50 46 10.0 19.0 0.00 0.03 0.00 69
20260510080800 50 50 10.0 19.0 0.00 0.03 0.00 69
20260510080722 50 51 10.0 19.0 0.00 0.03 0.00 69
20260510080601 50 52 10.0 16.0 0.00 0.03 0.00 70
20260510080521 50 51 10.0 16.0 0.00 0.03 0.00 70
20260510080400 50 50 10.0 16.0 0.00 0.03 0.00 70
20260510080300 50 50 10.0 16.0 0.00 0.03 0.00 70
20260510080200 50 49 9.0 16.0 0.00 0.03 0.00 70
20260510080121 50 47 9.0 16.0 0.00 0.03 0.00 70
20260510080021 50 46 9.0 16.0 0.00 0.03 0.00 70
20260510075900 50 42 9.0 16.0 0.00 0.03 0.00 71
20260510075800 49 37 9.0 15.0 0.00 0.03 0.00 71
20260510075700 49 36 9.0 15.0 0.00 0.03 0.00 72
20260510075600 49 36 9.0 16.0 0.00 0.03 0.00 71
20260510075500 49 37 9.0 16.0 0.00 0.03 0.00 71
20260510075402 49 36 9.0 19.0 0.00 0.03 0.00 72
20260510075300 49 35 9.0 19.0 0.00 0.03 0.00 72
20260510075200 49 36 10.0 19.0 0.00 0.03 0.00 72
20260510075100 49 33 10.0 19.0 0.00 0.03 0.00 72
20260510075000 49 33 10.0 19.0 0.00 0.03 0.00 73
20260510074900 49 35 10.0 19.0 0.00 0.03 0.00 72
20260510074821 49 35 10.0 19.0 0.00 0.03 0.00 72
20260510074700 49 35 11.0 19.0 0.00 0.03 0.00 73
20260510074600 49 33 12.0 19.0 0.00 0.03 0.00 72
20260510074500 49 31 12.0 21.0 0.00 0.03 0.00 73
20260510074400 49 31 12.0 21.0 0.00 0.03 0.00 73
20260510074300 49 30 12.0 21.0 0.00 0.03 0.00 73
20260510074200 49 29 11.0 21.0 0.00 0.03 0.00 74
20260510074100 49 31 11.0 21.0 0.00 0.03 0.00 73
20260510074000 48 30 12.0 21.0 0.00 0.03 0.00 73
20260510073900 48 28 12.0 21.0 0.00 0.03 0.00 73
20260510073800 48 27 11.0 21.0 0.00 0.03 0.00 72
20260510073700 49 28 11.0 21.0 0.00 0.03 0.00 72
20260510073600 49 28 10.0 21.0 0.00 0.03 0.00 73
20260510073500 49 30 10.0 15.0 0.00 0.03 0.00 72
20260510073400 49 30 10.0 15.0 0.00 0.03 0.00 73
20260510073300 49 31 10.0 16.0 0.00 0.03 0.00 74
20260510073200 49 30 10.0 16.0 0.00 0.03 0.00 73
20260510073121 49 29 10.0 16.0 0.00 0.03 0.00 73
20260510073000 49 31 9.0 16.0 0.00 0.03 0.00 74
20260510072900 49 33 9.0 16.0 0.00 0.03 0.00 74
20260510072800 49 33 9.0 16.0 0.00 0.03 0.00 74
20260510072700 49 34 9.0 16.0 0.00 0.03 0.00 74
20260510072621 49 35 9.0 16.0 0.00 0.03 0.00 74
20260510072500 48 35 9.0 16.0 0.00 0.03 0.00 75
20260510072400 48 35 9.0 16.0 0.00 0.03 0.00 76
20260510072300 48 35 9.0 16.0 0.00 0.03 0.00 76
20260510072200 48 35 9.0 16.0 0.00 0.03 0.00 76
20260510072122 48 35 9.0 16.0 0.00 0.03 0.00 76
20260510072000 48 34 9.0 16.0 0.00 0.03 0.00 76
20260510071900 47 35 9.0 16.0 0.00 0.03 0.00 76
20260510071800 47 36 9.0 16.0 0.00 0.03 0.00 76
20260510071721 47 36 9.0 16.0 0.00 0.03 0.00 76
20260510071621 47 36 9.0 16.0 0.00 0.03 0.00 75
20260510071500 47 35 9.0 16.0 0.00 0.03 0.00 75
20260510071400 47 37 8.0 16.0 0.00 0.03 0.00 75
20260510071300 47 38 8.0 14.0 0.00 0.03 0.00 75
20260510071221 47 40 8.0 12.0 0.00 0.03 0.00 75
20260510071100 47 38 8.0 19.0 0.00 0.03 0.00 75
20260510071021 47 37 8.0 19.0 0.00 0.03 0.00 75
20260510070900 48 38 8.0 19.0 0.00 0.03 0.00 75
20260510070800 48 38 9.0 19.0 0.00 0.03 0.00 75
20260510070700 48 37 8.0 19.0 0.00 0.03 0.00 75
20260510070600 48 37 8.0 19.0 0.00 0.03 0.00 75
20260510070500 48 38 9.0 19.0 0.00 0.03 0.00 75
20260510070400 48 40 9.0 19.0 0.00 0.03 0.00 75
20260510070300 48 41 9.0 19.0 0.00 0.03 0.00 76
20260510070200 48 41 9.0 19.0 0.00 0.03 0.00 76
20260510070100 48 45 9.0 16.0 0.00 0.03 0.00 77
20260510070000 48 47 9.0 16.0 0.00 0.03 0.00 77
20260510065900 48 48 9.0 16.0 0.00 0.03 0.00 77
20260510065800 48 47 9.0 16.0 0.00 0.03 0.00 77
20260510065700 47 47 9.0 16.0 0.00 0.03 0.00 77
20260510065600 47 50 9.0 16.0 0.00 0.03 0.00 77
20260510065500 47 50 9.0 16.0 0.00 0.03 0.00 76
20260510065400 47 48 9.0 16.0 0.00 0.03 0.00 77
20260510065322 47 47 9.0 16.0 0.00 0.03 0.00 77
20260510065200 47 43 9.0 19.0 0.00 0.03 0.00 77
20260510065100 47 41 9.0 19.0 0.00 0.03 0.00 77
20260510065000 47 41 9.0 19.0 0.00 0.03 0.00 77
20260510064900 47 41 8.0 19.0 0.00 0.03 0.00 78
20260510064800 47 41 8.0 19.0 0.00 0.03 0.00 78
20260510064721 46 40 8.0 19.0 0.00 0.03 0.00 78
20260510064601 46 39 8.0 19.0 0.00 0.03 0.00 78
20260510064500 46 37 8.0 19.0 0.00 0.03 0.00 78
20260510064400 46 35 8.0 19.0 0.00 0.03 0.00 79
20260510064307 46 35 7.0 19.0 0.00 0.03 0.00 79
20260510064200 46 35 7.0 12.0 0.00 0.03 0.00 79
20260510064100 46 35 7.0 12.0 0.00 0.03 0.00 79
20260510064000 46 34 7.0 12.0 0.00 0.03 0.00 80
20260510063900 46 31 7.0 12.0 0.00 0.03 0.00 80
20260510063800 46 32 7.0 12.0 0.00 0.03 0.00 80
20260510063700 46 33 7.0 12.0 0.00 0.03 0.00 80
20260510063600 46 34 7.0 12.0 0.00 0.03 0.00 80
20260510063500 45 36 7.0 11.0 0.00 0.03 0.00 80
20260510063400 46 36 7.0 12.0 0.00 0.03 0.00 80
20260510063300 45 36 7.0 13.0 0.00 0.03 0.00 80
20260510063221 45 36 7.0 13.0 0.00 0.03 0.00 80
20260510063100 46 38 7.0 13.0 0.00 0.03 0.00 79
20260510063000 46 37 7.0 13.0 0.00 0.03 0.00 79
20260510062900 46 38 7.0 13.0 0.00 0.03 0.00 80
20260510062800 46 36 7.0 13.0 0.00 0.03 0.00 80
20260510062700 46 34 7.0 13.0 0.00 0.03 0.00 80
20260510062600 46 32 7.0 13.0 0.00 0.03 0.00 80
20260510062500 46 31 7.0 13.0 0.00 0.03 0.00 80
20260510062421 45 30 7.0 13.0 0.00 0.03 0.00 80
20260510062321 45 31 7.0 13.0 0.00 0.03 0.00 80
20260510062200 45 30 8.0 13.0 0.00 0.03 0.00 80
20260510062100 45 26 8.0 13.0 0.00 0.03 0.00 81
20260510062000 45 25 8.0 13.0 0.00 0.03 0.00 81
20260510061900 45 25 8.0 13.0 0.00 0.03 0.00 81
20260510061800 45 25 8.0 13.0 0.00 0.03 0.00 81
20260510061721 45 24 8.0 13.0 0.00 0.03 0.00 81
20260510061600 45 26 9.0 13.0 0.00 0.03 0.00 81
20260510061500 45 26 9.0 13.0 0.00 0.03 0.00 81
20260510061401 45 27 8.0 12.0 0.00 0.03 0.00 81
20260510061300 45 26 8.0 12.0 0.00 0.03 0.00 82
20260510061200 45 26 8.0 12.0 0.00 0.03 0.00 82
20260510061102 45 28 8.0 12.0 0.00 0.03 0.00 82
20260510061021 45 29 8.0 12.0 0.00 0.03 0.00 82
20260510060901 45 29 8.0 12.0 0.00 0.03 0.00 83
20260510060821 45 29 8.0 12.0 0.00 0.03 0.00 83
20260510060700 44 30 8.0 12.0 0.00 0.03 0.00 83
20260510060600 44 30 7.0 13.0 0.00 0.03 0.00 83
20260510060500 44 31 7.0 13.0 0.00 0.03 0.00 83
20260510060400 44 30 8.0 13.0 0.00 0.03 0.00 83
20260510060300 44 29 8.0 13.0 0.00 0.03 0.00 83
20260510060200 44 28 7.0 13.0 0.00 0.03 0.00 83
20260510060100 44 27 8.0 13.0 0.00 0.03 0.00 83
20260510060000 44 25 8.0 13.0 0.00 0.03 0.00 83
20260510055900 44 25 7.0 13.0 0.00 0.03 0.00 83
20260510055821 44 27 7.0 13.0 0.00 0.03 0.00 83
20260510055721 44 29 7.0 13.0 0.00 0.03 0.00 84
20260510055601 44 28 7.0 12.0 0.00 0.03 0.00 84
20260510055500 44 25 7.0 12.0 0.00 0.03 0.00 84
20260510055400 44 26 6.0 12.0 0.00 0.03 0.00 84
20260510055300 44 28 6.0 12.0 0.00 0.03 0.00 84
20260510055200 44 29 6.0 12.0 0.00 0.03 0.00 84
20260510055100 44 30 6.0 12.0 0.00 0.03 0.00 84
20260510055021 44 30 6.0 12.0 0.00 0.03 0.00 84
20260510054900 44 28 7.0 12.0 0.00 0.03 0.00 85
20260510054800 44 25 7.0 12.0 0.00 0.03 0.00 85
20260510054700 44 23 6.0 11.0 0.00 0.03 0.00 85
20260510054600 44 23 6.0 11.0 0.00 0.03 0.00 85
20260510054521 44 24 6.0 11.0 0.00 0.03 0.00 85
20260510054400 44 24 6.0 11.0 0.00 0.03 0.00 85
20260510054300 44 24 6.0 11.0 0.00 0.03 0.00 85
20260510054200 44 23 6.0 11.0 0.00 0.03 0.00 85
20260510054100 44 23 6.0 11.0 0.00 0.03 0.00 85
20260510054000 44 25 6.0 11.0 0.00 0.03 0.00 85
20260510053921 44 26 6.0 11.0 0.00 0.03 0.00 85
20260510053821 44 27 6.0 10.0 0.00 0.03 0.00 85
20260510053700 43 29 6.0 10.0 0.00 0.03 0.00 85
20260510053600 43 28 6.0 10.0 0.00 0.03 0.00 86
20260510053500 43 28 6.0 10.0 0.00 0.03 0.00 85
20260510053400 43 26 6.0 10.0 0.00 0.03 0.00 86
20260510053300 43 26 6.0 10.0 0.00 0.03 0.00 86
20260510053200 43 28 6.0 10.0 0.00 0.03 0.00 86
20260510053100 43 28 7.0 10.0 0.00 0.03 0.00 86
20260510053000 43 26 7.0 10.0 0.00 0.03 0.00 86
20260510052900 43 27 7.0 11.0 0.00 0.03 0.00 86
20260510052800 43 28 7.0 11.0 0.00 0.03 0.00 86
20260510052700 43 29 7.0 11.0 0.00 0.03 0.00 86
20260510052601 43 29 7.0 11.0 0.00 0.03 0.00 86
20260510052500 43 29 7.0 11.0 0.00 0.03 0.00 86
20260510052400 43 32 7.0 11.0 0.00 0.03 0.00 86
20260510052300 43 34 7.0 11.0 0.00 0.03 0.00 86
20260510052200 43 34 7.0 11.0 0.00 0.03 0.00 86
20260510052100 43 34 7.0 11.0 0.00 0.03 0.00 86
20260510052000 43 35 7.0 12.0 0.00 0.03 0.00 87
20260510051900 43 34 7.0 12.0 0.00 0.03 0.00 87
20260510051800 43 31 7.0 12.0 0.00 0.03 0.00 87
20260510051701 43 31 7.0 12.0 0.00 0.03 0.00 87
20260510051600 43 30 7.0 12.0 0.00 0.03 0.00 87
20260510051500 43 31 7.0 12.0 0.00 0.03 0.00 87
20260510051421 43 31 7.0 12.0 0.00 0.03 0.00 87
20260510051300 43 29 7.0 12.0 0.00 0.03 0.00 87
20260510051200 43 28 6.0 12.0 0.00 0.03 0.00 87
20260510051121 43 27 6.0 12.0 0.00 0.03 0.00 87
20260510051000 43 27 6.0 12.0 0.00 0.03 0.00 88
20260510050921 43 27 6.0 12.0 0.00 0.03 0.00 88
20260510050800 43 28 6.0 12.0 0.00 0.03 0.00 88
20260510050700 43 28 5.0 12.0 0.00 0.03 0.00 88
20260510050600 43 29 5.0 8.0 0.00 0.03 0.00 88
20260510050500 43 29 6.0 8.0 0.00 0.03 0.00 88
20260510050421 43 29 6.0 9.0 0.00 0.03 0.00 88
20260510050300 43 29 6.0 12.0 0.00 0.03 0.00 88
20260510050221 43 29 6.0 12.0 0.00 0.03 0.00 88
20260510050121 43 32 6.0 12.0 0.00 0.03 0.00 88
20260510050000 43 32 6.0 12.0 0.00 0.03 0.00 88
20260510045900 43 35 6.0 12.0 0.00 0.03 0.00 88
20260510045800 43 35 6.0 12.0 0.00 0.03 0.00 88
20260510045700 43 34 7.0 12.0 0.00 0.03 0.00 88
20260510045600 43 34 7.0 12.0 0.00 0.03 0.00 88
20260510045500 43 33 7.0 12.0 0.00 0.03 0.00 88
20260510045400 43 33 7.0 12.0 0.00 0.03 0.00 88
20260510045300 43 33 7.0 11.0 0.00 0.03 0.00 89
20260510045221 43 33 7.0 11.0 0.00 0.03 0.00 89
20260510045100 43 31 7.0 11.0 0.00 0.03 0.00 89
20260510045000 43 30 8.0 11.0 0.00 0.03 0.00 89
20260510044900 43 29 8.0 11.0 0.00 0.03 0.00 89
20260510044821 43 28 7.0 11.0 0.00 0.03 0.00 89
20260510044700 43 28 7.0 11.0 0.00 0.03 0.00 89
20260510044600 43 28 7.0 11.0 0.00 0.03 0.00 89
20260510044521 43 28 7.0 11.0 0.00 0.03 0.00 89
20260510044400 43 29 7.0 11.0 0.00 0.03 0.00 89
20260510044300 43 29 7.0 11.0 0.00 0.03 0.00 89
20260510044200 42 29 7.0 11.0 0.00 0.03 0.00 90
20260510044100 43 28 7.0 10.0 0.00 0.03 0.00 90
20260510044000 43 28 7.0 10.0 0.00 0.03 0.00 90
20260510043900 43 28 7.0 10.0 0.00 0.03 0.00 90
20260510043800 43 28 7.0 10.0 0.00 0.03 0.00 90
20260510043700 43 27 7.0 10.0 0.00 0.03 0.00 90
20260510043600 43 26 7.0 10.0 0.00 0.03 0.00 90
20260510043500 42 26 7.0 10.0 0.00 0.03 0.00 90
20260510043421 42 25 7.0 10.0 0.00 0.03 0.00 90
20260510043300 42 24 6.0 10.0 0.00 0.03 0.00 90
20260510043200 42 24 7.0 10.0 0.00 0.03 0.00 90
20260510043100 42 24 7.0 10.0 0.00 0.03 0.00 90
20260510043000 42 23 7.0 9.0 0.00 0.03 0.00 90
20260510042921 42 22 7.0 11.0 0.00 0.03 0.00 90
20260510042821 42 21 7.0 11.0 0.00 0.03 0.00 90
20260510042700 42 21 7.0 11.0 0.00 0.03 0.00 90
20260510042600 42 21 7.0 11.0 0.00 0.03 0.00 90
20260510042521 42 20 7.0 11.0 0.00 0.03 0.00 90
20260510042400 42 19 7.0 11.0 0.00 0.03 0.00 90
20260510042305 43 18 8.0 11.0 0.00 0.03 0.00 90
20260510042200 42 17 8.0 11.0 0.00 0.03 0.00 90
20260510042100 43 17 8.0 11.0 0.00 0.03 0.00 90
20260510042021 43 16 8.0 12.0 0.00 0.03 0.00 90
20260510041900 43 16 8.0 12.0 0.00 0.03 0.00 90
20260510041800 43 15 8.0 12.0 0.00 0.03 0.00 89
20260510041700 43 15 8.0 12.0 0.00 0.03 0.00 89
20260510041621 43 14 8.0 12.0 0.00 0.03 0.00 89
20260510041500 43 14 8.0 12.0 0.00 0.03 0.00 89
20260510041400 43 13 8.0 12.0 0.00 0.03 0.00 89
20260510041321 43 13 8.0 12.0 0.00 0.03 0.00 89
20260510041200 43 13 9.0 12.0 0.00 0.03 0.00 89
20260510041101 43 13 9.0 13.0 0.00 0.03 0.00 89
20260510041000 43 13 9.0 13.0 0.00 0.03 0.00 89
20260510040900 43 12 9.0 13.0 0.00 0.03 0.00 89
20260510040800 43 12 9.0 13.0 0.00 0.03 0.00 89
20260510040700 43 13 9.0 13.0 0.00 0.03 0.00 89
20260510040601 43 13 9.0 13.0 0.00 0.03 0.00 89
20260510040501 43 13 9.0 13.0 0.00 0.03 0.00 89
20260510040400 43 13 9.0 13.0 0.00 0.03 0.00 89
20260510040300 43 13 8.0 13.0 0.00 0.03 0.00 89
20260510040200 43 13 8.0 13.0 0.00 0.03 0.00 89
20260510040100 43 13 8.0 12.0 0.00 0.03 0.00 89
20260510040000 43 13 8.0 12.0 0.00 0.03 0.00 89
20260510035900 43 14 8.0 12.0 0.00 0.03 0.00 89
20260510035800 43 14 8.0 12.0 0.00 0.03 0.00 89
20260510035700 43 14 8.0 12.0 0.00 0.03 0.00 89
20260510035621 43 14 8.0 12.0 0.00 0.03 0.00 89
20260510035521 43 14 8.0 12.0 0.00 0.03 0.00 89
20260510035421 43 15 8.0 12.0 0.00 0.03 0.00 89
20260510035300 43 15 8.0 12.0 0.00 0.03 0.00 89
20260510035200 43 16 8.0 12.0 0.00 0.03 0.00 89
20260510035121 43 15 8.0 12.0 0.00 0.03 0.00 89
20260510035000 43 15 8.0 12.0 0.00 0.03 0.00 89
20260510034900 43 14 8.0 12.0 0.00 0.03 0.00 89
20260510034800 43 13 8.0 11.0 0.00 0.03 0.00 89
20260510034700 43 12 8.0 11.0 0.00 0.03 0.00 89
20260510034600 43 11 7.0 11.0 0.00 0.03 0.00 89
20260510034500 43 10 7.0 11.0 0.00 0.03 0.00 89
20260510034400 43 10 7.0 11.0 0.00 0.03 0.00 89
20260510034321 43 9 7.0 11.0 0.00 0.03 0.00 89
20260510034200 43 9 7.0 10.0 0.00 0.03 0.00 89
20260510034100 43 9 7.0 10.0 0.00 0.03 0.00 89
20260510034000 43 10 7.0 10.0 0.00 0.03 0.00 89
20260510033900 43 11 7.0 10.0 0.00 0.03 0.00 89
20260510033800 43 12 7.0 12.0 0.00 0.03 0.00 88
20260510033700 43 13 7.0 12.0 0.00 0.03 0.00 89
20260510033600 43 15 7.0 12.0 0.00 0.03 0.00 88
20260510033500 43 16 7.0 12.0 0.00 0.03 0.00 89
20260510033400 43 17 7.0 12.0 0.00 0.03 0.00 89
20260510033300 43 19 7.0 12.0 0.00 0.03 0.00 89
20260510033200 43 20 7.0 12.0 0.00 0.03 0.00 89
20260510033100 43 20 7.0 12.0 0.00 0.03 0.00 89
20260510033000 43 20 8.0 12.0 0.00 0.03 0.00 89
20260510032900 43 20 8.0 12.0 0.00 0.03 0.00 89
20260510032800 43 20 8.0 12.0 0.00 0.03 0.00 89
20260510032700 43 19 8.0 11.0 0.00 0.03 0.00 89
20260510032600 43 18 8.0 11.0 0.00 0.03 0.00 89
20260510032500 43 18 8.0 11.0 0.00 0.03 0.00 89
20260510032400 43 17 8.0 11.0 0.00 0.03 0.00 89
20260510032300 43 16 8.0 11.0 0.00 0.03 0.00 89
20260510032200 43 16 8.0 11.0 0.00 0.03 0.00 89
20260510032100 43 15 8.0 11.0 0.00 0.03 0.00 89
20260510032000 43 15 8.0 11.0 0.00 0.03 0.00 89
20260510031921 43 15 8.0 11.0 0.00 0.03 0.00 89
20260510031800 43 15 8.0 11.0 0.00 0.03 0.00 88
20260510031721 43 15 8.0 11.0 0.00 0.03 0.00 88
20260510031600 43 16 8.0 11.0 0.00 0.03 0.00 88
20260510031522 43 15 8.0 11.0 0.00 0.03 0.00 88
20260510031423 43 15 8.0 10.0 0.00 0.03 0.00 88
20260510031321 43 16 8.0 10.0 0.00 0.03 0.00 88
20260510031200 43 15 8.0 10.0 0.00 0.03 0.00 88
20260510031100 43 16 8.0 10.0 0.00 0.03 0.00 88
20260510031000 43 16 8.0 10.0 0.00 0.03 0.00 88
20260510030900 43 16 8.0 10.0 0.00 0.03 0.00 88
20260510030800 43 16 8.0 10.0 0.00 0.03 0.00 88
20260510030700 43 15 8.0 10.0 0.00 0.03 0.00 88
20260510030600 44 15 8.0 11.0 0.00 0.03 0.00 88
20260510030500 44 15 8.0 11.0 0.00 0.03 0.00 88
20260510030400 44 16 8.0 11.0 0.00 0.03 0.00 88
20260510030301 44 16 8.0 11.0 0.00 0.03 0.00 88
20260510030200 44 16 8.0 11.0 0.00 0.03 0.00 88
20260510030100 44 15 8.0 12.0 0.00 0.03 0.00 87
20260510030000 44 15 8.0 12.0 0.00 0.03 0.00 87
20260510025900 44 16 8.0 12.0 0.00 0.03 0.00 87
20260510025800 44 16 9.0 12.0 0.00 0.03 0.00 87
20260510025700 44 17 9.0 12.0 0.00 0.03 0.00 87
20260510025600 44 17 9.0 12.0 0.00 0.03 0.00 88
20260510025500 44 18 9.0 12.0 0.00 0.03 0.00 88
20260510025422 44 18 8.0 12.0 0.00 0.03 0.00 88
20260510025300 44 18 8.0 12.0 0.00 0.03 0.00 88
20260510025200 44 19 8.0 12.0 0.00 0.03 0.00 88
20260510025100 44 19 8.0 11.0 0.00 0.03 0.00 87
20260510025000 44 20 8.0 11.0 0.00 0.03 0.00 88
20260510024900 44 21 7.0 11.0 0.00 0.03 0.00 87
20260510024821 44 22 7.0 11.0 0.00 0.03 0.00 87
20260510024700 44 22 7.0 11.0 0.00 0.03 0.00 87
20260510024600 44 22 7.0 10.0 0.00 0.03 0.00 87
20260510024500 44 22 7.0 9.0 0.00 0.03 0.00 87
20260510024421 44 22 7.0 9.0 0.00 0.03 0.00 87
20260510024300 44 22 7.0 9.0 0.00 0.03 0.00 87
20260510024200 44 22 7.0 9.0 0.00 0.03 0.00 87
20260510024121 44 23 7.0 9.0 0.00 0.03 0.00 87
20260510024001 44 23 7.0 10.0 0.00 0.03 0.00 87
20260510023900 44 23 7.0 10.0 0.00 0.03 0.00 87
20260510023800 44 23 7.0 10.0 0.00 0.03 0.00 86
20260510023700 44 24 7.0 10.0 0.00 0.03 0.00 86
20260510023600 44 25 7.0 10.0 0.00 0.03 0.00 87
20260510023500 44 26 7.0 10.0 0.00 0.03 0.00 87
20260510023400 44 27 7.0 10.0 0.00 0.03 0.00 86
20260510023300 44 27 7.0 10.0 0.00 0.03 0.00 86
20260510023221 44 26 8.0 11.0 0.00 0.03 0.00 86
20260510023100 44 26 8.0 11.0 0.00 0.03 0.00 86
20260510023000 44 25 8.0 11.0 0.00 0.03 0.00 86
20260510022900 44 25 8.0 11.0 0.00 0.03 0.00 86
20260510022821 44 25 8.0 11.0 0.00 0.03 0.00 86
20260510022700 44 25 9.0 13.0 0.00 0.03 0.00 86
20260510022621 44 24 9.0 13.0 0.00 0.03 0.00 86
20260510022500 44 22 9.0 13.0 0.00 0.03 0.00 86
20260510022400 44 22 9.0 13.0 0.00 0.03 0.00 86
20260510022300 44 22 9.0 13.0 0.00 0.03 0.00 86
20260510022221 44 22 10.0 13.0 0.00 0.03 0.00 86
20260510022100 45 21 10.0 15.0 0.00 0.03 0.00 86
20260510022000 45 21 10.0 15.0 0.00 0.03 0.00 86
20260510021901 45 20 10.0 15.0 0.00 0.03 0.00 86
20260510021800 45 19 10.0 15.0 0.00 0.03 0.00 86
20260510021700 45 18 10.0 15.0 0.00 0.03 0.00 86
20260510021600 45 18 10.0 15.0 0.00 0.03 0.00 86
20260510021500 45 18 10.0 15.0 0.00 0.03 0.00 86
20260510021421 45 18 10.0 15.0 0.00 0.03 0.00 86
20260510021300 45 16 10.0 15.0 0.00 0.03 0.00 86
20260510021222 45 16 9.0 15.0 0.00 0.03 0.00 86
20260510021100 45 16 9.0 14.0 0.00 0.03 0.00 86
20260510021021 45 16 9.0 14.0 0.00 0.03 0.00 86
20260510020900 45 17 9.0 14.0 0.00 0.03 0.00 86
20260510020800 45 18 8.0 12.0 0.00 0.03 0.00 86
20260510020721 45 19 8.0 12.0 0.00 0.03 0.00 86
20260510020601 45 19 8.0 12.0 0.00 0.03 0.00 86
20260510020500 45 19 8.0 12.0 0.00 0.03 0.00 86
20260510020400 45 19 8.0 12.0 0.00 0.03 0.00 85
20260510020321 45 18 8.0 14.0 0.00 0.03 0.00 85
20260510020200 45 19 9.0 14.0 0.00 0.03 0.00 86
20260510020100 45 20 9.0 16.0 0.00 0.03 0.00 85
20260510020000 45 21 9.0 16.0 0.00 0.03 0.00 85
20260510015901 45 21 9.0 16.0 0.00 0.03 0.00 85
20260510015800 45 20 10.0 16.0 0.00 0.03 0.00 85
20260510015700 45 20 10.0 16.0 0.00 0.03 0.00 85
20260510015621 45 21 10.0 16.0 0.00 0.03 0.00 85
20260510015500 45 21 10.0 16.0 0.00 0.03 0.00 85
20260510015400 45 23 9.0 16.0 0.00 0.03 0.00 85
20260510015300 45 24 9.0 16.0 0.00 0.03 0.00 85
20260510015200 45 26 9.0 16.0 0.00 0.03 0.00 85
20260510015100 45 26 9.0 16.0 0.00 0.03 0.00 85
20260510015000 45 26 9.0 16.0 0.00 0.03 0.00 85
20260510014900 45 26 9.0 16.0 0.00 0.03 0.00 85
20260510014800 45 27 9.0 16.0 0.00 0.03 0.00 85
20260510014701 45 26 9.0 16.0 0.00 0.03 0.00 85
20260510014600 45 25 8.0 16.0 0.00 0.03 0.00 85
20260510014500 45 27 8.0 16.0 0.00 0.03 0.00 86
20260510014400 45 25 9.0 16.0 0.00 0.03 0.00 86
20260510014300 45 24 9.0 16.0 0.00 0.03 0.00 86
20260510014200 45 24 9.0 16.0 0.00 0.03 0.00 86
20260510014121 45 24 9.0 16.0 0.00 0.03 0.00 86
20260510014000 46 26 9.0 16.0 0.00 0.03 0.00 86
20260510013921 45 26 9.0 16.0 0.00 0.03 0.00 86
20260510013800 46 26 9.0 16.0 0.00 0.03 0.00 86
20260510013700 46 27 9.0 16.0 0.00 0.03 0.00 86
20260510013600 46 26 9.0 16.0 0.00 0.03 0.00 86
20260510013500 46 25 10.0 16.0 0.00 0.03 0.00 86
20260510013421 46 24 10.0 18.0 0.00 0.03 0.00 86
20260510013300 46 26 10.0 18.0 0.00 0.03 0.00 86
20260510013221 46 27 10.0 18.0 0.00 0.03 0.00 86
20260510013121 46 27 10.0 18.0 0.00 0.03 0.00 86
20260510013000 46 26 10.0 18.0 0.00 0.03 0.00 86
20260510012900 46 26 10.0 18.0 0.00 0.03 0.00 87
20260510012800 46 26 10.0 18.0 0.00 0.03 0.00 86
20260510012700 46 25 10.0 18.0 0.00 0.03 0.00 86
20260510012600 46 27 10.0 18.0 0.00 0.03 0.00 86
20260510012521 46 27 10.0 18.0 0.00 0.03 0.00 86
20260510012400 46 28 9.0 15.0 0.00 0.03 0.00 87
20260510012300 46 27 9.0 15.0 0.00 0.03 0.00 87
20260510012201 46 26 9.0 15.0 0.00 0.03 0.00 87
20260510012100 46 24 8.0 15.0 0.00 0.03 0.00 87
20260510012000 46 25 8.0 14.0 0.00 0.03 0.00 87
20260510011900 46 24 9.0 14.0 0.00 0.03 0.00 87
20260510011800 46 25 9.0 16.0 0.00 0.03 0.00 87
20260510011700 46 27 9.0 16.0 0.00 0.03 0.00 87
20260510011600 46 27 9.0 16.0 0.00 0.03 0.00 87
20260510011500 46 27 9.0 16.0 0.00 0.03 0.00 87
20260510011400 46 27 9.0 16.0 0.00 0.03 0.00 87
20260510011300 46 28 9.0 16.0 0.00 0.03 0.00 87
20260510011200 46 30 9.0 16.0 0.00 0.03 0.00 87
20260510011100 46 31 9.0 16.0 0.00 0.03 0.00 87
20260510011000 46 32 9.0 16.0 0.00 0.03 0.00 87
20260510010900 46 33 9.0 16.0 0.00 0.03 0.00 87
20260510010801 46 32 9.0 13.0 0.00 0.03 0.00 87
20260510010700 46 30 9.0 15.0 0.00 0.03 0.00 87
20260510010600 46 31 9.0 15.0 0.00 0.03 0.00 87
20260510010500 46 31 9.0 15.0 0.00 0.03 0.00 87
20260510010400 46 31 9.0 15.0 0.00 0.03 0.00 87
20260510010300 46 31 9.0 15.0 0.00 0.03 0.00 87
20260510010200 46 31 9.0 15.0 0.00 0.03 0.00 87
20260510010100 46 30 9.0 15.0 0.00 0.03 0.00 87
20260510010000 46 30 9.0 15.0 0.00 0.03 0.00 87
20260510005900 46 29 9.0 15.0 0.00 0.03 0.00 87
20260510005800 46 28 9.0 15.0 0.00 0.03 0.00 87
20260510005701 46 27 9.0 15.0 0.00 0.03 0.00 87
20260510005600 46 27 9.0 15.0 0.00 0.03 0.00 87
20260510005500 46 26 9.0 15.0 0.00 0.03 0.00 87
20260510005400 46 26 9.0 15.0 0.00 0.03 0.00 87
20260510005300 46 26 9.0 15.0 0.00 0.03 0.00 88
20260510005200 46 25 9.0 15.0 0.00 0.03 0.00 88
20260510005121 46 24 9.0 15.0 0.00 0.03 0.00 88
20260510005000 46 22 9.0 15.0 0.00 0.03 0.00 87
20260510004900 46 22 9.0 13.0 0.00 0.03 0.00 88
20260510004800 46 22 8.0 13.0 0.00 0.03 0.00 88
20260510004700 46 22 8.0 13.0 0.00 0.03 0.00 88
20260510004600 46 23 8.0 14.0 0.00 0.03 0.00 88
20260510004500 46 23 9.0 14.0 0.00 0.03 0.00 88
20260510004400 46 22 9.0 14.0 0.00 0.03 0.00 88
20260510004300 46 21 9.0 14.0 0.00 0.03 0.00 88
20260510004221 46 22 9.0 14.0 0.00 0.03 0.00 88
20260510004100 46 23 9.0 14.0 0.00 0.03 0.00 88
20260510004000 46 24 9.0 14.0 0.00 0.03 0.00 88
20260510003900 46 23 9.0 14.0 0.00 0.03 0.00 88
20260510003800 46 23 9.0 14.0 0.00 0.03 0.00 88
20260510003700 46 24 9.0 14.0 0.00 0.03 0.00 88
20260510003600 46 23 9.0 14.0 0.00 0.03 0.00 88
20260510003500 46 22 8.0 14.0 0.00 0.03 0.00 88
20260510003400 46 21 8.0 14.0 0.00 0.03 0.00 88
20260510003300 46 21 8.0 14.0 0.00 0.03 0.00 88
20260510003222 46 20 8.0 12.0 0.00 0.03 0.00 88
20260510003100 46 17 8.0 12.0 0.00 0.03 0.00 88
20260510003000 46 16 8.0 12.0 0.00 0.03 0.00 88
20260510002900 46 15 8.0 12.0 0.00 0.03 0.00 88
20260510002801 46 14 8.0 12.0 0.00 0.03 0.00 88
20260510002700 46 12 8.0 12.0 0.00 0.03 0.00 88
20260510002621 46 12 8.0 12.0 0.00 0.03 0.00 88
20260510002521 46 11 8.0 12.0 0.00 0.03 0.00 88
20260510002421 46 11 8.0 12.0 0.00 0.03 0.00 88
20260510002321 46 11 8.0 12.0 0.00 0.03 0.00 88
20260510002200 46 11 8.0 12.0 0.00 0.03 0.00 88
20260510002100 46 14 8.0 12.0 0.00 0.03 0.00 88
20260510002000 46 14 8.0 12.0 0.00 0.03 0.00 88
20260510001900 46 16 9.0 12.0 0.00 0.03 0.00 88
20260510001800 46 18 8.0 12.0 0.00 0.03 0.00 88
20260510001721 46 19 8.0 12.0 0.00 0.03 0.00 88
20260510001600 46 20 8.0 12.0 0.00 0.03 0.00 88
20260510001500 46 22 8.0 12.0 0.00 0.03 0.00 88
20260510001400 46 23 8.0 12.0 0.00 0.03 0.00 88
20260510001300 46 25 8.0 13.0 0.00 0.03 0.00 88
20260510001200 46 23 8.0 13.0 0.00 0.03 0.00 88
20260510001100 46 23 8.0 13.0 0.00 0.03 0.00 88
20260510001000 46 25 7.0 13.0 0.00 0.03 0.00 88
20260510000900 46 25 7.0 13.0 0.00 0.03 0.00 88
20260510000800 46 26 7.0 13.0 0.00 0.03 0.00 88
20260510000700 46 27 7.0 13.0 0.00 0.03 0.00 88
20260510000622 46 28 7.0 13.0 0.00 0.03 0.00 88
20260510000500 46 29 8.0 13.0 0.00 0.03 0.00 88
20260510000400 46 29 8.0 13.0 0.00 0.03 0.00 88
20260510000300 46 28 7.0 13.0 0.00 0.03 0.00 88
20260510000203 46 31 7.0 12.0 0.00 0.03 0.00 88
20260510000121 46 32 8.0 12.0 0.00 0.03 0.00 88
20260510000000 46 33 8.0 12.0 0.00 0.03 0.00 88
20260509235900 46 33 8.0 12.0 0.00 0.03 0.00 88
20260509235800 46 32 8.0 14.0 0.00 0.03 0.00 88
20260509235721 46 32 8.0 14.0 0.00 0.03 0.00 88
20260509235600 46 32 8.0 14.0 0.00 0.03 0.00 88
20260509235500 46 31 9.0 14.0 0.00 0.03 0.00 88
20260509235400 46 32 9.0 14.0 0.00 0.03 0.00 88
20260509235321 46 33 9.0 14.0 0.00 0.03 0.00 88
20260509235200 46 33 9.0 14.0 0.00 0.03 0.00 89
20260509235100 46 32 9.0 14.0 0.00 0.03 0.00 89
20260509235021 46 32 9.0 14.0 0.00 0.03 0.00 89
20260509234900 46 31 9.0 14.0 0.00 0.03 0.00 89
20260509234800 46 32 8.0 13.0 0.00 0.03 0.00 89
20260509234700 46 31 8.0 13.0 0.00 0.03 0.00 89
20260509234600 46 33 8.0 13.0 0.00 0.03 0.00 89
20260509234500 46 33 8.0 13.0 0.00 0.03 0.00 89
20260509234400 46 33 8.0 13.0 0.00 0.03 0.00 89
20260509234300 46 33 8.0 13.0 0.00 0.03 0.00 89
20260509234200 46 31 8.0 13.0 0.00 0.03 0.00 89
20260509234121 46 31 8.0 13.0 0.00 0.03 0.00 89
20260509234000 46 30 8.0 13.0 0.00 0.03 0.00 90
20260509233900 46 32 8.0 13.0 0.00 0.03 0.00 90
20260509233821 46 31 8.0 13.0 0.00 0.03 0.00 90
20260509233721 46 30 8.0 13.0 0.00 0.03 0.00 90
20260509233600 46 28 9.0 13.0 0.00 0.03 0.00 90
20260509233500 46 29 9.0 13.0 0.00 0.03 0.00 90
20260509233401 46 28 8.0 13.0 0.00 0.03 0.00 90
20260509233300 46 29 8.0 13.0 0.00 0.03 0.00 90
20260509233200 46 30 8.0 13.0 0.00 0.03 0.00 90
20260509233100 46 32 8.0 15.0 0.00 0.03 0.00 90
20260509233000 46 32 8.0 15.0 0.00 0.03 0.00 90
20260509232921 46 31 8.0 15.0 0.00 0.03 0.00 90
20260509232821 46 30 8.0 15.0 0.00 0.03 0.00 90
20260509232721 46 31 8.0 15.0 0.00 0.03 0.00 90
20260509232600 46 31 8.0 15.0 0.00 0.03 0.00 91
20260509232500 46 31 8.0 15.0 0.00 0.03 0.00 91
20260509232400 46 31 8.0 15.0 0.00 0.03 0.00 91
20260509232300 46 30 8.0 15.0 0.00 0.03 0.00 91
20260509232200 46 28 8.0 15.0 0.00 0.03 0.00 91
20260509232100 46 28 8.0 14.0 0.00 0.03 0.00 91
20260509232000 46 27 8.0 14.0 0.00 0.03 0.00 91
20260509231900 46 27 8.0 14.0 0.00 0.03 0.00 91
20260509231800 46 28 8.0 14.0 0.00 0.03 0.00 91
20260509231700 46 27 8.0 14.0 0.00 0.03 0.00 91
20260509231600 46 26 9.0 14.0 0.00 0.03 0.00 91
20260509231500 46 25 9.0 14.0 0.00 0.03 0.00 91
20260509231400 46 24 9.0 15.0 0.00 0.03 0.00 91
20260509231321 46 23 9.0 15.0 0.00 0.03 0.00 91
20260509231200 46 23 9.0 15.0 0.00 0.03 0.00 91
20260509231100 46 22 9.0 15.0 0.00 0.03 0.00 91
20260509231000 46 22 10.0 15.0 0.00 0.03 0.00 91
20260509230900 46 21 10.0 15.0 0.00 0.03 0.00 91
20260509230800 46 20 10.0 15.0 0.00 0.03 0.00 91
20260509230700 46 18 10.0 15.0 0.00 0.03 0.00 91
20260509230600 46 18 10.0 15.0 0.00 0.03 0.00 91
20260509230500 46 18 9.0 15.0 0.00 0.03 0.00 92
20260509230400 46 17 9.0 14.0 0.00 0.03 0.00 92
20260509230300 46 20 9.0 14.0 0.00 0.03 0.00 92
20260509230200 46 21 9.0 14.0 0.00 0.03 0.00 92
20260509230000 46 21 8.0 14.0 0.00 0.03 0.00 92
20260509225900 46 22 8.0 13.0 0.00 0.03 0.03 92
20260509225800 46 24 8.0 13.0 0.00 0.03 0.03 92
20260509225721 46 24 8.0 13.0 0.00 0.03 0.03 92
20260509225601 46 24 8.0 13.0 0.00 0.03 0.03 92
20260509225500 46 25 7.0 13.0 0.00 0.03 0.03 92
20260509225400 46 26 8.0 13.0 0.00 0.03 0.03 92
20260509225300 46 23 8.0 12.0 0.00 0.03 0.03 92
20260509225200 46 24 8.0 12.0 0.00 0.03 0.03 92
20260509225100 46 24 9.0 13.0 0.00 0.03 0.03 92
20260509225000 46 24 9.0 13.0 0.00 0.03 0.03 92
20260509224900 46 26 9.0 13.0 0.00 0.03 0.03 92
20260509224800 46 26 8.0 13.0 0.00 0.03 0.03 92
20260509224700 46 28 8.0 13.0 0.00 0.03 0.03 92
20260509224600 46 29 9.0 13.0 0.00 0.03 0.03 92
20260509224502 46 30 9.0 13.0 0.00 0.03 0.03 92
20260509224400 46 31 9.0 14.0 0.00 0.03 0.03 92
20260509224300 46 33 9.0 14.0 0.00 0.03 0.03 92
20260509224221 46 33 8.0 14.0 0.00 0.03 0.03 92
20260509224121 46 36 8.0 14.0 0.00 0.03 0.03 92
20260509224000 46 36 8.0 14.0 0.00 0.03 0.03 92
20260509223900 46 35 8.0 14.0 0.00 0.03 0.03 92
20260509223800 46 34 8.0 14.0 0.00 0.03 0.03 92
20260509223721 46 35 9.0 14.0 0.00 0.03 0.03 92
20260509223621 46 34 8.0 14.0 0.00 0.03 0.03 92
20260509223500 46 33 8.0 14.0 0.00 0.03 0.03 92
20260509223400 46 34 8.0 14.0 0.00 0.03 0.03 92
20260509223300 46 33 8.0 14.0 0.00 0.03 0.03 92
20260509223221 46 33 8.0 14.0 0.00 0.03 0.03 92
20260509223121 46 32 8.0 14.0 0.00 0.03 0.03 92
20260509223000 46 34 8.0 14.0 0.00 0.03 0.03 92
20260509222900 46 36 8.0 14.0 0.00 0.03 0.03 92
20260509222800 46 36 8.0 14.0 0.00 0.03 0.03 92
20260509222700 46 36 8.0 14.0 0.00 0.03 0.03 92
20260509222600 46 37 8.0 11.0 0.00 0.03 0.03 92
20260509222500 46 39 8.0 14.0 0.00 0.03 0.03 92
20260509222400 46 38 8.0 14.0 0.00 0.03 0.03 92
20260509222300 46 39 8.0 14.0 0.00 0.03 0.03 92
20260509222200 46 38 9.0 14.0 0.00 0.03 0.03 92
20260509222100 46 37 9.0 14.0 0.00 0.03 0.03 92
20260509222000 46 35 9.0 15.0 0.00 0.03 0.03 92
20260509221900 46 34 10.0 15.0 0.00 0.03 0.03 92
20260509221821 46 33 10.0 15.0 0.00 0.03 0.03 92
20260509221700 46 34 10.0 16.0 0.00 0.03 0.03 92
20260509221600 46 32 11.0 16.0 0.00 0.03 0.03 92
20260509221501 46 31 11.0 16.0 0.00 0.03 0.03 92
20260509221421 46 31 11.0 16.0 0.00 0.03 0.03 92
20260509221300 46 30 11.0 16.0 0.00 0.03 0.03 92
20260509221221 46 30 12.0 16.0 0.00 0.03 0.03 92
20260509221100 46 29 11.0 16.0 0.00 0.03 0.03 92
20260509221000 46 29 11.0 16.0 0.00 0.03 0.03 92
20260509220900 46 28 11.0 16.0 0.00 0.03 0.03 92
20260509220800 46 28 11.0 16.0 0.00 0.03 0.03 92
20260509220700 46 26 11.0 16.0 0.00 0.03 0.03 92
20260509220600 46 26 11.0 15.0 0.00 0.03 0.03 92
20260509220500 46 25 11.0 15.0 0.00 0.03 0.03 92
20260509220400 46 25 11.0 15.0 0.00 0.03 0.03 92
20260509220300 46 23 11.0 15.0 0.00 0.03 0.03 92
20260509220200 46 24 10.0 15.0 0.00 0.03 0.03 92
20260509220121 46 23 10.0 15.0 0.00 0.03 0.03 92
20260509220000 46 24 10.0 15.0 0.00 0.03 0.03 92
20260509215901 46 24 10.0 14.0 0.00 0.03 0.03 92
20260509215821 46 24 10.0 14.0 0.00 0.03 0.03 92
20260509215700 46 25 10.0 15.0 0.00 0.03 0.03 92
20260509215600 46 25 10.0 15.0 0.00 0.03 0.03 92
20260509215500 46 25 10.0 15.0 0.00 0.03 0.03 92
20260509215400 46 26 10.0 15.0 0.00 0.03 0.03 92
20260509215300 46 28 10.0 15.0 0.00 0.03 0.03 92
20260509215200 46 28 10.0 15.0 0.00 0.03 0.03 92
20260509215121 46 29 10.0 15.0 0.00 0.03 0.03 92
20260509215000 46 29 10.0 15.0 0.00 0.03 0.03 92
20260509214921 46 30 10.0 15.0 0.00 0.03 0.03 92
20260509214800 46 31 11.0 16.0 0.00 0.03 0.03 92
20260509214700 46 31 10.0 16.0 0.00 0.03 0.03 92
20260509214600 46 32 10.0 16.0 0.00 0.03 0.03 92
20260509214500 46 33 11.0 18.0 0.00 0.03 0.03 92
20260509214400 46 32 11.0 18.0 0.00 0.03 0.03 92
20260509214300 46 32 11.0 18.0 0.00 0.03 0.03 92
20260509214201 46 33 11.0 18.0 0.00 0.03 0.03 92
20260509214100 46 32 11.0 18.0 0.00 0.03 0.03 92
20260509214000 46 32 10.0 18.0 0.00 0.03 0.03 92
20260509213900 46 32 10.0 18.0 0.00 0.03 0.03 92
20260509213800 46 31 10.0 18.0 0.00 0.03 0.03 92
20260509213721 46 31 9.0 18.0 0.00 0.03 0.03 92
20260509213600 46 31 9.0 18.0 0.00 0.03 0.03 92
20260509213500 46 32 9.0 18.0 0.00 0.03 0.03 92
20260509213400 46 32 10.0 18.0 0.00 0.03 0.03 92
20260509213322 46 32 10.0 18.0 0.00 0.03 0.03 92
20260509213200 46 32 9.0 18.0 0.00 0.03 0.03 92
20260509213100 46 33 10.0 18.0 0.00 0.03 0.03 92
20260509213000 46 33 10.0 18.0 0.00 0.03 0.03 92
20260509212900 46 32 9.0 18.0 0.00 0.03 0.03 92
20260509212800 46 31 10.0 18.0 0.00 0.03 0.03 92
20260509212700 46 31 10.0 18.0 0.00 0.03 0.03 92
20260509212600 46 31 11.0 20.0 0.00 0.03 0.03 92
20260509212500 46 30 11.0 20.0 0.00 0.03 0.03 92
20260509212400 47 30 11.0 20.0 0.00 0.03 0.03 92
20260509212300 47 31 10.0 20.0 0.00 0.03 0.03 92
20260509212200 47 31 11.0 20.0 0.00 0.03 0.03 92
20260509212100 47 31 11.0 20.0 0.00 0.03 0.03 92
20260509212000 47 33 11.0 20.0 0.00 0.03 0.03 92
20260509211900 47 35 11.0 20.0 0.00 0.03 0.03 92
20260509211822 47 35 11.0 20.0 0.00 0.03 0.03 92
20260509211700 47 36 11.0 20.0 0.00 0.03 0.03 92
20260509211600 47 36 11.0 16.0 0.00 0.03 0.03 92
20260509211500 47 36 11.0 19.0 0.00 0.03 0.03 92
20260509211400 47 36 11.0 19.0 0.00 0.03 0.03 92
20260509211300 47 35 11.0 19.0 0.00 0.03 0.03 92
20260509211200 47 35 11.0 19.0 0.00 0.03 0.03 92
20260509211100 47 35 10.0 19.0 0.00 0.03 0.03 92
20260509211000 47 35 10.0 19.0 0.00 0.03 0.03 92
20260509210900 47 33 10.0 19.0 0.00 0.03 0.03 92
20260509210821 47 33 11.0 19.0 0.00 0.03 0.03 92
20260509210700 47 33 11.0 19.0 0.00 0.03 0.03 92
20260509210600 47 33 11.0 19.0 0.00 0.03 0.03 92
20260509210500 47 34 10.0 19.0 0.00 0.03 0.03 92
20260509210400 47 36 10.0 19.0 0.00 0.03 0.03 92
20260509210300 47 38 10.0 19.0 0.00 0.03 0.03 92
20260509210200 47 39 10.0 19.0 0.00 0.03 0.03 92
20260509210100 47 39 10.0 19.0 0.00 0.03 0.03 92
20260509210000 47 38 10.0 19.0 0.00 0.03 0.03 92
20260509205900 47 36 10.0 21.0 0.00 0.03 0.03 92
20260509205800 47 35 10.0 21.0 0.00 0.03 0.03 92
20260509205721 47 35 9.0 21.0 0.00 0.03 0.03 92
20260509205622 47 34 9.0 21.0 0.00 0.03 0.03 92
20260509205500 47 34 9.0 21.0 0.00 0.03 0.03 92
20260509205421 47 32 10.0 21.0 0.00 0.03 0.03 92
20260509205300 47 29 10.0 21.0 0.00 0.03 0.03 92
20260509205222 47 29 10.0 21.0 0.00 0.03 0.03 92
20260509205100 47 27 10.0 21.0 0.00 0.03 0.03 92
20260509205000 47 26 9.0 21.0 0.00 0.03 0.03 92
20260509204921 47 26 9.0 15.0 0.00 0.03 0.03 92
20260509204821 47 27 9.0 15.0 0.00 0.03 0.03 92
20260509204700 47 27 10.0 15.0 0.00 0.03 0.03 92
20260509204621 47 27 10.0 15.0 0.00 0.03 0.03 92
20260509204500 47 28 10.0 16.0 0.00 0.03 0.03 92
20260509204400 47 29 10.0 16.0 0.00 0.03 0.03 92
20260509204301 47 27 10.0 16.0 0.00 0.03 0.03 92
20260509204200 47 28 10.0 18.0 0.00 0.03 0.03 92
20260509204101 47 29 10.0 18.0 0.00 0.03 0.03 92
20260509204000 47 29 10.0 18.0 0.00 0.03 0.03 92
20260509203900 47 29 10.0 18.0 0.00 0.03 0.03 92
20260509203800 47 29 10.0 18.0 0.00 0.03 0.03 92
20260509203700 47 29 10.0 18.0 0.00 0.03 0.03 92
20260509203600 47 29 10.0 18.0 0.00 0.03 0.03 92
20260509203500 47 28 10.0 18.0 0.00 0.03 0.03 91
20260509203400 47 29 10.0 18.0 0.00 0.03 0.03 92
20260509203300 47 30 9.0 18.0 0.00 0.03 0.03 91
20260509203200 47 29 9.0 18.0 0.00 0.03 0.03 91
20260509203100 47 29 9.0 18.0 0.00 0.03 0.03 91
20260509203021 48 30 10.0 18.0 0.00 0.03 0.03 91
20260509202900 47 32 10.0 18.0 0.00 0.03 0.03 91
20260509202800 48 32 10.0 18.0 0.00 0.03 0.03 92
20260509202700 48 33 9.0 18.0 0.00 0.03 0.03 91
20260509202600 48 33 9.0 14.0 0.00 0.03 0.03 92
20260509202500 48 33 9.0 14.0 0.00 0.03 0.03 91
20260509202401 48 33 9.0 14.0 0.00 0.03 0.03 91
20260509202300 48 32 10.0 19.0 0.00 0.03 0.03 91
20260509202200 48 31 10.0 19.0 0.00 0.03 0.03 92
20260509202100 48 30 11.0 19.0 0.00 0.03 0.03 92
20260509202000 48 28 11.0 19.0 0.00 0.03 0.03 92
20260509201900 48 27 11.0 19.0 0.00 0.03 0.03 92
20260509201800 48 28 11.0 19.0 0.00 0.03 0.03 91
20260509201700 48 27 11.0 19.0 0.00 0.03 0.03 91
20260509201621 48 27 11.0 19.0 0.00 0.03 0.03 91
20260509201500 48 27 11.0 19.0 0.00 0.03 0.03 91
20260509201400 48 26 11.0 19.0 0.00 0.03 0.03 91
20260509201300 48 27 11.0 18.0 0.00 0.03 0.03 91
20260509201200 48 27 11.0 18.0 0.00 0.03 0.03 91
20260509201100 48 28 11.0 18.0 0.00 0.03 0.03 91
20260509201000 48 29 11.0 18.0 0.00 0.03 0.03 91
20260509200900 48 29 11.0 18.0 0.00 0.03 0.03 91
20260509200800 48 28 11.0 18.0 0.00 0.03 0.03 91
20260509200721 48 27 11.0 18.0 0.00 0.03 0.03 91
20260509200621 48 28 11.0 18.0 0.00 0.03 0.03 91
20260509200500 48 27 11.0 18.0 0.00 0.03 0.03 91
20260509200400 48 27 11.0 18.0 0.00 0.03 0.03 91
20260509200300 48 28 11.0 16.0 0.00 0.03 0.03 91
20260509200223 48 28 11.0 16.0 0.00 0.03 0.03 91
20260509200100 48 27 11.0 16.0 0.00 0.03 0.03 91
20260509200000 48 26 11.0 16.0 0.00 0.03 0.03 91
20260509195900 48 27 11.0 16.0 0.00 0.03 0.03 91
20260509195800 48 27 11.0 16.0 0.00 0.03 0.03 91
20260509195700 48 28 10.0 16.0 0.00 0.03 0.03 91
20260509195600 48 28 10.0 16.0 0.00 0.03 0.03 91
20260509195521 48 28 10.0 16.0 0.00 0.03 0.03 91
20260509195400 48 28 9.0 16.0 0.00 0.03 0.03 91
20260509195300 48 28 10.0 16.0 0.00 0.03 0.03 91
20260509195200 48 28 9.0 16.0 0.00 0.03 0.03 91
20260509195100 48 29 9.0 16.0 0.00 0.03 0.03 91
20260509195000 48 30 9.0 16.0 0.00 0.03 0.03 91
20260509194900 48 29 9.0 16.0 0.00 0.03 0.03 91
20260509194800 48 30 9.0 16.0 0.00 0.03 0.03 91
20260509194700 48 30 9.0 16.0 0.00 0.03 0.03 91
20260509194621 48 30 9.0 16.0 0.00 0.03 0.03 91
20260509194500 48 29 10.0 16.0 0.00 0.03 0.03 91
20260509194401 48 29 10.0 16.0 0.00 0.03 0.03 91
20260509194321 48 29 10.0 16.0 0.00 0.03 0.03 91
20260509194200 48 30 9.0 16.0 0.00 0.03 0.03 91
20260509194100 48 30 9.0 16.0 0.00 0.03 0.03 91
20260509194000 48 31 9.0 16.0 0.00 0.03 0.03 91
20260509193900 48 33 10.0 16.0 0.00 0.03 0.03 91
20260509193800 48 34 9.0 18.0 0.00 0.03 0.03 91
20260509193700 48 33 10.0 18.0 0.00 0.03 0.03 91
20260509193621 48 33 10.0 18.0 0.00 0.03 0.03 91
20260509193521 48 34 10.0 18.0 0.00 0.03 0.03 91
20260509193400 48 33 10.0 19.0 0.00 0.03 0.03 91
20260509193301 49 33 10.0 19.0 0.00 0.03 0.03 91
20260509193200 49 32 10.0 19.0 0.00 0.03 0.03 91
20260509193100 49 32 11.0 19.0 0.00 0.03 0.03 91
20260509193000 49 30 11.0 19.0 0.00 0.03 0.03 91
20260509192900 49 28 11.0 19.0 0.00 0.03 0.03 91
20260509192800 49 28 11.0 19.0 0.00 0.03 0.03 90
20260509192701 49 28 10.0 19.0 0.00 0.03 0.03 90
20260509192600 49 28 10.0 19.0 0.00 0.03 0.03 90
20260509192500 49 29 10.0 19.0 0.00 0.03 0.03 90
20260509192400 49 29 10.0 18.0 0.00 0.03 0.03 90
20260509192300 49 28 10.0 18.0 0.00 0.03 0.03 90
20260509192200 49 29 10.0 18.0 0.00 0.03 0.03 90
20260509192100 49 30 9.0 18.0 0.00 0.03 0.03 91
20260509192000 49 32 9.0 14.0 0.00 0.03 0.03 91
20260509191900 49 33 9.0 14.0 0.00 0.03 0.03 90
20260509191800 49 33 10.0 18.0 0.00 0.03 0.03 90
20260509191700 49 33 10.0 18.0 0.00 0.03 0.03 90
20260509191600 49 33 9.0 18.0 0.00 0.03 0.03 90
20260509191500 49 32 9.0 18.0 0.00 0.03 0.03 90
20260509191400 49 33 9.0 18.0 0.00 0.03 0.03 90
20260509191300 49 34 9.0 18.0 0.00 0.03 0.03 90
20260509191200 49 34 9.0 18.0 0.00 0.03 0.03 90
20260509191121 49 33 9.0 18.0 0.00 0.03 0.03 90
20260509191000 49 32 9.0 18.0 0.00 0.03 0.03 90
20260509190921 50 32 9.0 18.0 0.00 0.03 0.03 90
20260509190800 50 31 9.0 15.0 0.00 0.03 0.03 90
20260509190700 50 32 9.0 16.0 0.00 0.03 0.03 90
20260509190602 50 32 10.0 19.0 0.00 0.03 0.03 90
20260509190521 50 32 10.0 19.0 0.00 0.03 0.03 90
20260509190400 50 31 10.0 19.0 0.00 0.03 0.03 90
20260509190300 50 31 10.0 19.0 0.00 0.03 0.03 90
20260509190200 50 31 10.0 19.0 0.00 0.03 0.03 90
20260509190122 50 31 10.0 19.0 0.00 0.03 0.03 90
20260509190000 50 32 9.0 19.0 0.00 0.03 0.03 90
20260509185900 50 32 9.0 19.0 0.00 0.03 0.03 90
20260509185800 50 32 8.0 19.0 0.00 0.03 0.03 90
20260509185700 50 33 8.0 19.0 0.00 0.03 0.03 90
20260509185600 50 34 7.0 19.0 0.00 0.03 0.03 90
20260509185521 50 35 6.0 18.0 0.00 0.03 0.03 90
20260509185400 50 38 5.0 13.0 0.00 0.03 0.03 90
20260509185300 50 38 5.0 10.0 0.00 0.03 0.03 90
20260509185201 50 39 6.0 11.0 0.00 0.03 0.03 90
20260509185100 50 39 6.0 11.0 0.00 0.03 0.03 90
20260509185000 50 38 6.0 11.0 0.00 0.03 0.03 90
20260509184900 50 37 6.0 11.0 0.00 0.03 0.03 90
20260509184821 50 36 7.0 11.0 0.00 0.03 0.03 90
20260509184700 50 34 7.0 11.0 0.00 0.03 0.03 90
20260509184621 50 34 7.0 11.0 0.00 0.03 0.03 90
20260509184521 50 34 7.0 11.0 0.00 0.03 0.03 90
20260509184400 50 34 7.0 11.0 0.01 0.03 0.03 90
20260509184300 50 34 7.0 11.0 0.01 0.03 0.03 90
20260509184200 50 33 7.0 11.0 0.01 0.03 0.03 90
20260509184100 50 32 7.0 11.0 0.01 0.03 0.03 90
20260509184000 50 33 6.0 11.0 0.01 0.03 0.03 90
20260509183921 50 33 6.0 11.0 0.01 0.03 0.03 90
20260509183800 50 34 6.0 11.0 0.01 0.03 0.03 90
20260509183700 50 34 6.0 9.0 0.01 0.03 0.03 90
20260509183621 50 33 6.0 9.0 0.01 0.03 0.03 90
20260509183521 50 34 6.0 9.0 0.01 0.03 0.03 90
20260509183421 50 35 7.0 10.0 0.01 0.03 0.03 90
20260509183300 50 35 7.0 11.0 0.01 0.03 0.03 90
20260509183200 50 36 7.0 11.0 0.01 0.03 0.03 90
20260509183100 50 36 7.0 11.0 0.01 0.03 0.03 90
20260509183023 50 35 7.0 11.0 0.01 0.03 0.03 90
20260509182900 50 34 8.0 12.0 0.01 0.03 0.03 90
20260509182821 50 34 8.0 12.0 0.01 0.03 0.03 90
20260509182700 50 34 8.0 12.0 0.01 0.03 0.03 90
20260509182600 50 35 8.0 12.0 0.01 0.03 0.03 90
20260509182500 50 34 8.0 12.0 0.01 0.03 0.03 90
20260509182400 50 34 8.0 12.0 0.01 0.03 0.03 90
20260509182300 50 34 8.0 12.0 0.01 0.03 0.03 90
20260509182202 50 33 8.0 12.0 0.01 0.03 0.03 90
20260509182100 50 34 8.0 12.0 0.01 0.03 0.03 90
20260509182000 50 34 8.0 13.0 0.01 0.03 0.03 90
20260509181900 50 34 8.0 13.0 0.01 0.03 0.03 90
20260509181800 50 34 8.0 13.0 0.01 0.03 0.03 90
20260509181700 50 34 8.0 13.0 0.01 0.03 0.03 90
20260509181600 50 34 8.0 13.0 0.01 0.03 0.03 90
20260509181500 50 34 9.0 13.0 0.01 0.03 0.03 90
20260509181400 50 33 9.0 13.0 0.01 0.03 0.03 90
20260509181321 50 33 9.0 13.0 0.01 0.03 0.03 90
20260509181221 50 33 9.0 13.0 0.01 0.03 0.03 90
20260509181121 50 32 9.0 13.0 0.01 0.03 0.03 90
20260509181000 50 34 8.0 13.0 0.01 0.03 0.03 90
20260509180921 50 33 8.0 13.0 0.01 0.03 0.03 90
20260509180800 50 34 8.0 13.0 0.01 0.03 0.03 90
20260509180700 50 33 8.0 13.0 0.01 0.03 0.03 90
20260509180600 50 34 8.0 13.0 0.01 0.03 0.03 90
20260509180501 50 33 8.0 12.0 0.01 0.03 0.03 90
20260509180401 50 32 8.0 11.0 0.01 0.03 0.03 90
20260509180300 50 31 7.0 11.0 0.01 0.03 0.03 90
20260509180200 50 31 7.0 11.0 0.01 0.03 0.03 90
20260509180100 50 31 7.0 11.0 0.01 0.03 0.03 89
20260509180001 50 30 7.0 11.0 0.01 0.03 0.03 89
20260509175900 50 29 7.0 11.0 0.01 0.03 0.03 89
20260509175800 50 29 7.0 11.0 0.01 0.03 0.03 89
20260509175700 50 29 8.0 11.0 0.01 0.03 0.03 89
20260509175600 50 29 8.0 11.0 0.01 0.03 0.03 89
20260509175500 50 29 8.0 12.0 0.01 0.03 0.03 89
20260509175400 50 30 8.0 13.0 0.01 0.03 0.03 89
20260509175300 50 32 8.0 13.0 0.01 0.03 0.03 89
20260509175200 50 33 8.0 13.0 0.01 0.03 0.03 89
20260509175121 50 33 8.0 13.0 0.01 0.03 0.03 89
20260509175000 50 34 8.0 13.0 0.01 0.03 0.03 90
20260509174901 50 35 8.0 13.0 0.01 0.03 0.03 89
20260509174800 50 36 8.0 13.0 0.01 0.03 0.03 89
20260509174700 50 36 8.0 13.0 0.01 0.03 0.03 89
20260509174600 50 37 8.0 13.0 0.01 0.03 0.03 90
20260509174500 50 38 7.0 13.0 0.01 0.03 0.03 90
20260509174400 50 39 7.0 13.0 0.00 0.02 0.02 90
20260509174300 51 38 7.0 10.0 0.00 0.02 0.02 90
20260509174200 50 39 7.0 10.0 0.00 0.02 0.02 90
20260509174100 50 39 7.0 10.0 0.00 0.02 0.02 90
20260509174000 51 39 7.0 10.0 0.00 0.02 0.02 90
20260509173922 51 38 7.0 10.0 0.00 0.02 0.02 90
20260509173800 51 38 7.0 11.0 0.00 0.02 0.02 90
20260509173700 51 40 7.0 11.0 0.00 0.02 0.02 90
20260509173621 51 40 7.0 11.0 0.00 0.02 0.02 90
20260509173500 51 38 7.0 11.0 0.00 0.02 0.02 90
20260509173400 51 38 7.0 12.0 0.00 0.02 0.02 90
20260509173321 51 37 7.0 12.0 0.00 0.02 0.02 90
20260509173200 51 38 7.0 12.0 0.00 0.02 0.02 90
20260509173121 51 37 7.0 12.0 0.00 0.02 0.02 90
20260509173001 51 37 7.0 12.0 0.00 0.02 0.02 90
20260509172901 51 36 7.0 12.0 0.00 0.02 0.02 90
20260509172800 51 37 7.0 12.0 0.00 0.02 0.02 90
20260509172701 51 37 8.0 12.0 0.00 0.02 0.02 90
20260509172600 51 36 8.0 12.0 0.00 0.02 0.02 90
20260509172500 51 36 8.0 12.0 0.00 0.02 0.02 90
20260509172400 51 37 7.0 11.0 0.00 0.02 0.02 90
20260509172300 51 37 7.0 11.0 0.00 0.02 0.02 90
20260509172222 51 37 7.0 11.0 0.00 0.02 0.02 90
20260509172100 51 37 7.0 11.0 0.00 0.02 0.02 90
20260509172000 51 37 7.0 11.0 0.00 0.02 0.02 90
20260509171900 51 37 7.0 11.0 0.00 0.02 0.02 90
20260509171800 51 35 7.0 11.0 0.00 0.02 0.02 90
20260509171700 51 34 7.0 11.0 0.00 0.02 0.02 90
20260509171601 51 33 7.0 9.0 0.00 0.02 0.02 90
20260509171500 51 32 7.0 9.0 0.00 0.02 0.02 90
20260509171400 51 30 7.0 9.0 0.01 0.02 0.02 90
20260509171300 51 29 7.0 9.0 0.01 0.02 0.02 90
20260509171200 51 26 7.0 9.0 0.01 0.02 0.02 90
20260509171100 51 25 7.0 9.0 0.01 0.02 0.02 90
20260509171000 51 26 7.0 9.0 0.01 0.02 0.02 90
20260509170900 51 26 7.0 9.0 0.01 0.02 0.02 90
20260509170800 51 26 7.0 10.0 0.01 0.02 0.02 90
20260509170700 51 25 7.0 10.0 0.01 0.02 0.02 90
20260509170600 51 24 7.0 10.0 0.01 0.02 0.02 90
20260509170500 51 23 7.0 10.0 0.01 0.02 0.02 90
20260509170400 51 24 7.0 10.0 0.01 0.02 0.02 90
20260509170300 51 25 7.0 10.0 0.01 0.02 0.02 90
20260509170200 51 26 7.0 10.0 0.01 0.02 0.02 91
20260509170101 51 26 7.0 10.0 0.01 0.02 0.02 91
20260509170001 51 25 7.0 10.0 0.02 0.02 0.02 91
20260509165900 51 24 7.0 10.0 0.02 0.02 0.02 91
20260509165800 51 25 7.0 10.0 0.02 0.02 0.02 91
20260509165700 51 25 7.0 10.0 0.02 0.02 0.02 91
20260509165600 51 27 7.0 13.0 0.02 0.02 0.02 91
20260509165500 51 28 7.0 13.0 0.02 0.02 0.02 91
20260509165400 51 28 7.0 13.0 0.02 0.02 0.02 91
20260509165300 51 29 7.0 13.0 0.02 0.02 0.02 91
20260509165200 51 28 7.0 13.0 0.02 0.02 0.02 91
20260509165100 51 29 7.0 13.0 0.02 0.02 0.02 91
20260509165000 51 29 7.0 13.0 0.02 0.02 0.02 90
20260509164900 51 31 7.0 13.0 0.02 0.02 0.02 90
20260509164821 51 32 6.0 13.0 0.02 0.02 0.02 90
20260509164701 51 33 6.0 13.0 0.02 0.02 0.02 90
20260509164601 51 33 6.0 11.0 0.02 0.02 0.02 90
20260509164501 52 33 6.0 9.0 0.02 0.02 0.02 90
20260509164400 52 33 6.0 11.0 0.02 0.02 0.02 90
20260509164300 52 34 6.0 11.0 0.02 0.02 0.02 90
20260509164200 52 35 6.0 11.0 0.02 0.02 0.02 90
20260509164100 52 35 6.0 11.0 0.02 0.02 0.02 90
20260509164000 52 36 6.0 11.0 0.02 0.02 0.02 90
20260509163900 52 34 6.0 11.0 0.02 0.02 0.02 90
20260509163801 52 34 6.0 11.0 0.02 0.02 0.02 90
20260509163700 52 34 6.0 11.0 0.02 0.02 0.02 90
20260509163600 52 34 6.0 11.0 0.02 0.02 0.02 90
20260509163521 52 35 6.0 11.0 0.02 0.02 0.02 90
20260509163400 52 34 6.0 11.0 0.02 0.02 0.02 90
20260509163300 52 32 6.0 11.0 0.02 0.02 0.02 90
20260509163200 52 32 6.0 11.0 0.02 0.02 0.02 89
20260509163101 52 31 6.0 11.0 0.02 0.02 0.02 89
20260509163000 52 31 6.0 11.0 0.02 0.02 0.02 89
20260509162900 52 32 6.0 11.0 0.02 0.02 0.02 89
20260509162800 52 32 6.0 11.0 0.02 0.02 0.02 89
20260509162722 52 33 6.0 11.0 0.02 0.02 0.02 89
20260509162622 52 33 6.0 11.0 0.02 0.02 0.02 89
20260509162500 52 33 6.0 11.0 0.02 0.02 0.02 89
20260509162400 52 33 6.0 11.0 0.02 0.02 0.02 89
20260509162300 52 34 6.0 10.0 0.02 0.02 0.02 89
20260509162200 52 35 6.0 11.0 0.02 0.02 0.02 89
20260509162121 52 35 6.0 11.0 0.02 0.02 0.02 89
20260509162000 52 35 6.0 11.0 0.02 0.02 0.02 89
20260509161922 52 34 7.0 11.0 0.02 0.02 0.02 89
20260509161800 52 33 7.0 11.0 0.02 0.02 0.02 89
20260509161701 52 32 7.0 11.0 0.02 0.02 0.02 88
20260509161600 52 32 7.0 11.0 0.02 0.02 0.02 88
20260509161500 52 33 7.0 11.0 0.02 0.02 0.02 88
20260509161421 52 33 7.0 11.0 0.02 0.02 0.02 88
20260509161301 52 33 7.0 11.0 0.02 0.02 0.02 88
20260509161201 52 33 7.0 10.0 0.02 0.02 0.02 88
20260509161101 52 34 7.0 10.0 0.02 0.02 0.02 88
20260509161000 53 35 7.0 12.0 0.02 0.02 0.02 88
20260509160900 53 35 7.0 12.0 0.02 0.02 0.02 88
20260509160821 53 35 7.0 12.0 0.02 0.02 0.02 88
20260509160700 53 33 7.0 12.0 0.02 0.02 0.02 88
20260509160600 53 31 7.0 14.0 0.02 0.02 0.02 88
20260509160501 53 29 8.0 14.0 0.02 0.02 0.02 87
20260509160400 53 28 8.0 14.0 0.02 0.02 0.02 87
20260509160300 53 27 8.0 14.0 0.02 0.02 0.02 87
20260509160200 53 26 8.0 14.0 0.02 0.02 0.02 87
20260509160022 53 25 8.0 14.0 0.01 0.01 0.02 87
20260509155901 53 27 8.0 14.0 0.01 0.01 0.01 86
20260509155800 53 29 7.0 14.0 0.01 0.01 0.01 86
20260509155722 53 30 7.0 14.0 0.01 0.01 0.01 86
20260509155600 54 34 7.0 11.0 0.01 0.01 0.01 86
20260509155500 54 37 6.0 11.0 0.01 0.01 0.01 86
20260509155401 54 40 6.0 11.0 0.01 0.01 0.01 86
20260509155300 54 44 6.0 10.0 0.01 0.01 0.01 86
20260509155221 54 46 6.0 10.0 0.01 0.01 0.01 86
20260509155122 54 48 6.0 10.0 0.01 0.01 0.01 85
20260509155001 54 51 6.0 10.0 0.01 0.01 0.01 85
20260509154900 54 52 7.0 10.0 0.01 0.01 0.01 85
20260509154801 54 51 7.0 11.0 0.01 0.01 0.01 85
20260509154700 54 51 7.0 12.0 0.01 0.01 0.01 84
20260509154600 54 51 7.0 12.0 0.01 0.01 0.01 84
20260509154523 54 50 8.0 12.0 0.00 0.00 0.00 84
20260509154421 54 49 8.0 12.0 0.00 0.00 0.00 84
20260509154301 54 46 8.0 14.0 0.00 0.00 0.00 84
20260509154200 54 44 8.0 14.0 0.00 0.00 0.00 84
20260509154101 54 42 8.0 14.0 0.00 0.00 0.00 84
20260509154021 54 41 8.0 14.0 0.00 0.00 0.00 84
20260509153900 54 38 8.0 14.0 0.00 0.00 0.00 84
20260509153822 54 37 8.0 14.0 0.00 0.00 0.00 84
20260509153700 54 35 8.0 14.0 0.00 0.00 0.00 84
20260509153600 54 33 9.0 14.0 0.00 0.00 0.00 84
20260509153500 54 32 9.0 14.0 0.00 0.00 0.00 84
20260509153401 54 32 9.0 14.0 0.00 0.00 0.00 84
20260509153300 54 32 9.0 13.0 0.00 0.00 0.00 84
20260509153200 54 31 8.0 13.0 0.00 0.00 0.00 84
20260509153121 54 30 8.0 13.0 0.00 0.00 0.00 84
20260509153000 54 30 8.0 13.0 0.00 0.00 0.00 84
20260509152900 54 29 8.0 13.0 0.00 0.00 0.00 83
20260509152801 54 29 8.0 13.0 0.00 0.00 0.00 83
20260509152700 54 28 8.0 13.0 0.00 0.00 0.00 83
20260509152621 54 28 8.0 13.0 0.00 0.00 0.00 83
20260509152501 54 26 8.0 13.0 0.00 0.00 0.00 83
20260509152400 55 26 8.0 13.0 0.00 0.00 0.00 83
20260509152300 55 25 9.0 13.0 0.00 0.00 0.00 82
20260509152201 55 25 9.0 13.0 0.00 0.00 0.00 82
20260509152100 55 25 9.0 13.0 0.00 0.00 0.00 82
20260509152000 55 25 9.0 13.0 0.00 0.00 0.00 81
20260509151900 55 26 9.0 13.0 0.00 0.00 0.00 81
20260509151800 55 26 9.0 13.0 0.00 0.00 0.00 80
20260509151700 56 27 9.0 13.0 0.00 0.00 0.00 80
20260509151601 56 29 9.0 13.0 0.00 0.00 0.00 79
20260509151501 56 32 9.0 13.0 0.00 0.00 0.00 78